M I D A S
Marine Information and Data Acquisition System
Tripno 1651 of the Zeeleeuw from 2009-03-02 07:39:02 to 2009-03-02 18:03:57
Back to CruiseResearch ActivitiesStationsMapUnderway DataData graphs

EquipmentUnitsComment
TimeDGPSUTC
LatitudeDGPSDM.mWGS84
LongitudeDGPSDM.mWGS84
TemperatureSBE03/SBE38deg celciusITS90
ConductivitySBE21S/mITS90
SalinitySBE21 Practical Salinity Units
ChlorophylAChelsea fluorimeterg/lCalibrated in Aceton
Missing or incorrect values are displayed as -999
Sea surface data collected by the RV Zeeleeuw from 2009-03-02 07:38:28 to 2009-03-02 18:13:10
                                                                                    Next 1000 lines
Time Latitude Longitude Temperature Conductivity Salinity ChlorophylA
2009-03-02 07:38:38 51°13.661 2°55.956 -999 0.090575 0.453533 -1.313985
2009-03-02 07:38:43 51°13.662 2°55.954 -999 0.090575 0.453533 -1.313985
2009-03-02 07:38:48 51°13.662 2°55.951 -999 0.090575 0.45354 -1.313985
2009-03-02 07:38:53 51°13.663 2°55.948 -999 0.090575 0.453555 -1.279161
2009-03-02 07:38:58 51°13.664 2°55.945 -999 0.090575 0.453562 -1.313985
2009-03-02 07:39:03 51°13.665 2°55.941 -999 0.090575 0.453576 -1.313985
2009-03-02 07:39:08 51°13.666 2°55.936 -999 0.090575 0.453576 -1.279161
2009-03-02 07:39:13 51°13.668 2°55.931 -999 0.090575 0.453576 -1.279161
2009-03-02 07:39:18 51°13.669 2°55.926 -999 0.090575 0.453576 -1.313985
2009-03-02 07:39:23 51°13.671 2°55.921 -999 0.090575 0.453576 -1.279161
2009-03-02 07:39:28 51°13.672 2°55.915 -999 0.090575 0.453576 -1.279161
2009-03-02 07:39:33 51°13.674 2°55.909 -999 0.090575 0.453583 -1.313985
2009-03-02 07:39:38 51°13.675 2°55.903 -999 0.090575 0.453583 -1.313985
2009-03-02 07:39:43 51°13.676 2°55.896 -999 0.090575 0.453583 -1.313985
2009-03-02 07:39:48 51°13.677 2°55.889 -999 0.090575 0.453583 -1.313985
2009-03-02 07:39:53 51°13.679 2°55.882 -999 0.090575 0.453583 -1.313985
2009-03-02 07:39:58 51°13.68 2°55.875 -999 0.090575 0.453583 -1.313985
2009-03-02 07:40:03 51°13.682 2°55.868 -999 0.090575 0.45359 -1.313985
2009-03-02 07:40:08 51°13.683 2°55.861 -999 0.090677 0.454124 -1.313985
2009-03-02 07:40:13 51°13.684 2°55.853 -999 0.090677 0.454124 -1.313985
2009-03-02 07:40:18 51°13.686 2°55.846 -999 0.090677 0.454131 -1.313985
2009-03-02 07:40:23 51°13.687 2°55.838 -999 0.090677 0.454131 -1.313985
2009-03-02 07:40:28 51°13.689 2°55.831 -999 0.090677 0.454131 -1.313985
2009-03-02 07:40:33 51°13.69 2°55.824 -999 0.090677 0.454138 -1.313985
2009-03-02 07:40:38 51°13.691 2°55.817 -999 0.090677 0.454138 -1.313985
2009-03-02 07:40:43 51°13.692 2°55.81 -999 0.090677 0.454138 -1.313985
2009-03-02 07:40:48 51°13.693 2°55.804 -999 0.090677 0.454145 -1.313985
2009-03-02 07:40:53 51°13.694 2°55.799 -999 0.090677 0.454152 -1.313985
2009-03-02 07:40:58 51°13.695 2°55.795 -999 0.090677 0.454166 -1.313985
2009-03-02 07:41:03 51°13.695 2°55.791 -999 0.090677 0.454181 -1.313985
2009-03-02 07:41:08 51°13.695 2°55.789 -999 0.090677 0.454209 -1.279161
2009-03-02 07:41:13 51°13.695 2°55.788 -999 0.090677 0.454209 -1.279161
2009-03-02 07:41:18 51°13.695 2°55.787 -999 0.090677 0.45423 -1.313985
2009-03-02 07:41:23 51°13.696 2°55.786 -999 0.090677 0.454266 -1.313985
2009-03-02 07:41:28 51°13.696 2°55.784 -999 0.090677 0.454273 -1.313985
2009-03-02 07:41:33 51°13.697 2°55.783 -999 0.090677 0.454294 -1.313985
2009-03-02 07:41:38 51°13.697 2°55.781 -999 0.090677 0.454308 -1.279161
2009-03-02 07:41:43 51°13.698 2°55.779 -999 0.090677 0.454308 -1.279161
2009-03-02 07:41:48 51°13.698 2°55.777 -999 0.090677 0.454323 -1.313985
2009-03-02 07:41:53 51°13.699 2°55.775 -999 0.090677 0.45433 -1.313985
2009-03-02 07:41:58 51°13.7 2°55.773 -999 0.090677 0.45433 -1.313985
2009-03-02 07:42:03 51°13.701 2°55.77 -999 0.090677 0.454337 -1.313985
2009-03-02 07:42:08 51°13.703 2°55.767 -999 0.090677 0.454344 -1.313985
2009-03-02 07:42:13 51°13.704 2°55.764 -999 0.090677 0.454344 -1.313985
2009-03-02 07:42:18 51°13.706 2°55.761 -999 0.090677 0.454344 -1.313985
2009-03-02 07:42:23 51°13.708 2°55.758 -999 0.090677 0.454344 -1.313985
2009-03-02 07:42:28 51°13.711 2°55.754 -999 0.09078 0.454878 -1.313985
2009-03-02 07:42:33 51°13.713 2°55.75 -999 0.09078 0.454878 -1.313985
2009-03-02 07:42:38 51°13.716 2°55.746 -999 0.09078 0.454878 -1.313985
2009-03-02 07:42:43 51°13.719 2°55.742 -999 0.09078 0.454878 -1.313985
2009-03-02 07:42:48 51°13.723 2°55.738 -999 0.09078 0.454885 -1.313985
2009-03-02 07:42:53 51°13.726 2°55.734 -999 0.09078 0.454885 -1.279161
2009-03-02 07:42:58 51°13.73 2°55.729 -999 0.09078 0.454885 -1.313985
2009-03-02 07:43:03 51°13.733 2°55.725 -999 0.09078 0.454885 -1.313985
2009-03-02 07:43:08 51°13.737 2°55.72 -999 0.09078 0.454892 -1.313985
2009-03-02 07:43:13 51°13.741 2°55.715 -999 0.09078 0.454892 -1.313985
2009-03-02 07:43:18 51°13.746 2°55.71 -999 0.09078 0.454899 -1.313985
2009-03-02 07:43:23 51°13.75 2°55.704 -999 0.09078 0.454899 -1.313985
2009-03-02 07:43:28 51°13.755 2°55.699 -999 0.09078 0.454906 -1.313985
2009-03-02 07:43:33 51°13.76 2°55.694 -999 0.09078 0.454906 -1.313985
2009-03-02 07:43:38 51°13.765 2°55.689 -999 0.09078 0.454914 -1.313985
2009-03-02 07:43:43 51°13.77 2°55.683 -999 0.09078 0.454914 -1.313985
2009-03-02 07:43:48 51°13.775 2°55.679 -999 0.09078 0.454914 -1.313985
2009-03-02 07:43:53 51°13.781 2°55.674 -999 0.09078 0.454914 -1.313985
2009-03-02 07:43:58 51°13.786 2°55.669 -999 0.09078 0.454914 -1.313985
2009-03-02 07:44:03 51°13.792 2°55.665 -999 0.09078 0.454921 -1.279161
2009-03-02 07:44:08 51°13.798 2°55.661 -999 0.09078 0.454921 -1.313985
2009-03-02 07:44:13 51°13.803 2°55.657 -999 0.09078 0.454921 -1.313985
2009-03-02 07:44:18 51°13.809 2°55.653 -999 0.09078 0.454921 -1.313985
2009-03-02 07:44:23 51°13.815 2°55.65 -999 0.09078 0.454928 -1.313985
2009-03-02 07:44:28 51°13.821 2°55.647 -999 0.09078 0.454928 -1.313985
2009-03-02 07:44:33 51°13.826 2°55.644 -999 0.09078 0.454921 -1.279161
2009-03-02 07:44:38 51°13.832 2°55.641 -999 0.09078 0.454928 -1.313985
2009-03-02 07:44:43 51°13.837 2°55.638 -999 0.09078 0.454928 -1.313985
2009-03-02 07:44:48 51°13.843 2°55.634 -999 0.090883 0.455462 -1.313985
2009-03-02 07:44:53 51°13.848 2°55.631 -999 0.090883 0.455462 -1.313985
2009-03-02 07:44:58 51°13.853 2°55.628 -999 0.090883 0.455462 -1.313985
2009-03-02 07:45:03 51°13.858 2°55.625 -999 0.090883 0.455476 -1.279161
2009-03-02 07:45:08 51°13.863 2°55.622 -999 0.090883 0.455476 -1.313985
2009-03-02 07:45:13 51°13.869 2°55.619 -999 0.090883 0.455476 -1.313985
2009-03-02 07:45:18 51°13.874 2°55.616 -999 0.090883 0.455483 -1.313985
2009-03-02 07:45:23 51°13.879 2°55.614 -999 0.090883 0.455483 -1.313985
2009-03-02 07:45:28 51°13.885 2°55.611 -999 0.090883 0.45549 -1.313985
2009-03-02 07:45:33 51°13.89 2°55.61 -999 0.090883 0.455498 -1.313985
2009-03-02 07:45:38 51°13.894 2°55.608 -999 0.090883 0.455505 -1.313985
2009-03-02 07:45:43 51°13.899 2°55.607 -999 0.090883 0.455505 -1.313985
2009-03-02 07:45:48 51°13.903 2°55.606 -999 0.090883 0.455505 -1.313985
2009-03-02 07:45:53 51°13.908 2°55.605 -999 0.090883 0.455519 -1.313985
2009-03-02 07:45:58 51°13.912 2°55.605 -999 0.090883 0.455533 -1.313985
2009-03-02 07:46:03 51°13.917 2°55.604 -999 0.090883 0.455555 -1.313985
2009-03-02 07:46:08 51°13.92 2°55.604 -999 0.090883 0.455569 -1.313985
2009-03-02 07:46:13 51°13.925 2°55.605 -999 0.090883 0.455569 -1.313985
2009-03-02 07:46:18 51°13.929 2°55.605 -999 0.090883 0.455576 -1.313985
2009-03-02 07:46:23 51°13.932 2°55.606 -999 0.090883 0.455583 -1.313985
2009-03-02 07:46:28 51°13.936 2°55.606 -999 0.090883 0.455583 -1.313985
2009-03-02 07:46:32 51°13.938 2°55.607 -999 0.090883 0.45559 -1.313985
2009-03-02 07:46:38 51°13.942 2°55.608 -999 0.090883 0.45559 -1.313985
2009-03-02 07:46:43 51°13.945 2°55.609 -999 0.090883 0.45559 -1.313985
2009-03-02 07:46:48 51°13.948 2°55.61 -999 0.090883 0.45559 -1.313985
2009-03-02 07:46:53 51°13.95 2°55.611 -999 0.090883 0.45559 -1.313985
2009-03-02 07:46:58 51°13.952 2°55.611 -999 0.090883 0.45559 -1.313985
2009-03-02 07:47:03 51°13.953 2°55.611 -999 0.090883 0.455605 -1.279161
2009-03-02 07:47:08 51°13.954 2°55.611 -999 0.090883 0.455612 -1.313985
2009-03-02 07:47:13 51°13.954 2°55.611 -999 0.090883 0.455612 -1.313985
2009-03-02 07:47:18 51°13.954 2°55.61 -999 0.090883 0.455612 -1.313985
2009-03-02 07:47:23 51°13.953 2°55.609 -999 0.090883 0.455619 -1.313985
2009-03-02 07:47:28 51°13.952 2°55.607 -999 0.090883 0.455619 -1.313985
2009-03-02 07:47:33 51°13.951 2°55.605 -999 0.090883 0.455633 -1.313985
2009-03-02 07:47:38 51°13.95 2°55.603 -999 0.090883 0.45564 -1.279161
2009-03-02 07:47:43 51°13.95 2°55.6 -999 0.090986 0.456182 -1.313985
2009-03-02 07:47:48 51°13.949 2°55.597 -999 0.090986 0.456182 -1.313985
2009-03-02 07:47:53 51°13.948 2°55.594 -999 0.090986 0.456182 -1.313985
2009-03-02 07:47:58 51°13.948 2°55.592 -999 0.090986 0.456196 -1.313985
2009-03-02 07:48:03 51°13.948 2°55.591 -999 0.090986 0.456196 -1.313985
2009-03-02 07:48:08 51°13.948 2°55.592 -999 0.090986 0.456196 -1.313985
2009-03-02 07:48:13 51°13.948 2°55.592 -999 0.090986 0.456196 -1.313985
2009-03-02 07:48:18 51°13.949 2°55.594 -999 0.090986 0.456196 -1.313985
2009-03-02 07:48:23 51°13.949 2°55.597 -999 0.090986 0.456196 -1.279161
2009-03-02 07:48:28 51°13.95 2°55.599 -999 0.090986 0.456196 -1.313985
2009-03-02 07:48:33 51°13.95 2°55.602 -999 0.090986 0.456196 -1.313985
2009-03-02 07:48:38 51°13.951 2°55.604 -999 0.090986 0.456196 -1.313985
2009-03-02 07:48:43 51°13.951 2°55.605 -999 0.090986 0.456196 -1.313985
2009-03-02 07:48:48 51°13.952 2°55.605 -999 0.090986 0.456203 -1.313985
2009-03-02 07:48:53 51°13.952 2°55.605 -999 0.090986 0.45621 -1.279161
2009-03-02 07:48:58 51°13.952 2°55.603 -999 0.090986 0.456217 -1.279161
2009-03-02 07:49:03 51°13.953 2°55.6 -999 0.090986 0.456239 -1.313985
2009-03-02 07:49:08 51°13.954 2°55.596 -999 0.090986 0.456253 -1.313985
2009-03-02 07:49:13 51°13.955 2°55.593 -999 0.090986 0.456253 -1.313985
2009-03-02 07:49:18 51°13.957 2°55.588 -999 0.090986 0.456267 -1.313985
2009-03-02 07:49:23 51°13.959 2°55.584 -999 0.090986 0.456289 -1.313985
2009-03-02 07:49:28 51°13.961 2°55.58 -999 0.090986 0.456296 -1.313985
2009-03-02 07:49:33 51°13.964 2°55.575 -999 0.090986 0.456303 -1.313985
2009-03-02 07:49:38 51°13.968 2°55.571 -999 0.090986 0.45631 -1.313985
2009-03-02 07:49:43 51°13.972 2°55.566 -999 0.090986 0.45631 -1.313985
2009-03-02 07:49:48 51°13.977 2°55.561 -999 0.090986 0.456317 -1.313985
2009-03-02 07:49:53 51°13.982 2°55.556 -999 0.090986 0.45631 -1.313985
2009-03-02 07:49:58 51°13.987 2°55.551 -999 0.090986 0.456325 -1.313985
2009-03-02 07:50:03 51°13.992 2°55.545 -999 0.090986 0.456317 -1.313985
2009-03-02 07:50:08 51°13.998 2°55.539 -999 0.090986 0.456325 -1.313985
2009-03-02 07:50:13 51°14.004 2°55.533 -999 0.090986 0.456325 -1.313985
2009-03-02 07:50:18 51°14.011 2°55.527 -999 0.090986 0.456325 -1.279161
2009-03-02 07:50:23 51°14.018 2°55.521 -999 0.090986 0.456332 -1.313985
2009-03-02 07:50:28 51°14.024 2°55.514 -999 0.090986 0.456346 -1.313985
2009-03-02 07:50:33 51°14.031 2°55.508 -999 0.090986 0.456353 -1.313985
2009-03-02 07:50:38 51°14.038 2°55.501 -999 0.090986 0.456368 -1.313985
2009-03-02 07:50:43 51°14.046 2°55.494 -999 0.090986 0.456368 -1.313985
2009-03-02 07:50:48 51°14.054 2°55.487 -999 0.090986 0.456375 -1.313985
2009-03-02 07:50:52 51°14.06 2°55.482 -999 0.090986 0.456382 -1.313985
2009-03-02 07:50:58 51°14.069 2°55.473 -999 0.090986 0.456389 -1.313985
2009-03-02 07:51:03 51°14.077 2°55.466 -999 0.090986 0.456389 -1.279161
2009-03-02 07:51:08 51°14.085 2°55.458 -999 0.090986 0.456396 -1.313985
2009-03-02 07:51:13 51°14.094 2°55.451 -999 0.090986 0.456396 -1.313985
2009-03-02 07:51:18 51°14.102 2°55.444 -999 0.090986 0.456403 -1.313985
2009-03-02 07:51:23 51°14.11 2°55.436 -999 0.090986 0.456403 -1.313985
2009-03-02 07:51:28 51°14.119 2°55.428 -999 0.090986 0.456418 -1.279161
2009-03-02 07:51:33 51°14.127 2°55.42 -999 0.090986 0.456418 -1.279161
2009-03-02 07:51:38 51°14.136 2°55.412 -999 0.090986 0.456432 -1.313985
2009-03-02 07:51:43 51°14.145 2°55.404 -999 0.090986 0.456432 -1.313985
2009-03-02 07:51:48 51°14.154 2°55.395 -999 0.090986 0.456432 -1.313985
2009-03-02 07:51:53 51°14.163 2°55.387 -999 0.090986 0.456439 -1.313985
2009-03-02 07:51:58 51°14.172 2°55.378 -999 0.090986 0.456446 -1.313985
2009-03-02 07:52:03 51°14.181 2°55.368 -999 0.090986 0.456453 -1.279161
2009-03-02 07:52:08 51°14.19 2°55.359 -999 0.090986 0.456461 -1.279161
2009-03-02 07:52:13 51°14.198 2°55.349 -999 0.090986 0.456461 -1.279161
2009-03-02 07:52:18 51°14.207 2°55.338 -999 0.090986 0.456461 -1.313985
2009-03-02 07:52:23 51°14.216 2°55.328 -999 0.090986 0.456468 -1.313985
2009-03-02 07:52:28 51°14.224 2°55.317 -999 0.090986 0.456475 -1.313985
2009-03-02 07:52:33 51°14.233 2°55.305 -999 0.090986 0.456482 -1.313985
2009-03-02 07:52:38 51°14.241 2°55.293 -999 0.090986 0.456489 -1.313985
2009-03-02 07:52:43 51°14.25 2°55.281 -999 0.090986 0.456489 -1.313985
2009-03-02 07:52:48 51°14.258 2°55.268 -999 0.090986 0.456489 -1.313985
2009-03-02 07:52:53 51°14.267 2°55.255 -999 0.090986 0.456496 -1.313985
2009-03-02 07:52:58 51°14.275 2°55.241 -999 0.090986 0.456511 -1.313985
2009-03-02 07:53:03 51°14.283 2°55.227 -999 0.090986 0.456503 -1.313985
2009-03-02 07:53:08 51°14.292 2°55.213 -999 0.090986 0.456518 -1.313985
2009-03-02 07:53:13 51°14.3 2°55.199 -999 0.090986 0.456518 -1.313985
2009-03-02 07:53:18 51°14.308 2°55.184 -999 0.090986 0.456518 -1.313985
2009-03-02 07:53:23 51°14.317 2°55.17 -999 0.090986 0.456525 -1.313985
2009-03-02 07:53:28 51°14.325 2°55.155 -999 0.090986 0.456532 -1.313985
2009-03-02 07:53:33 51°14.334 2°55.14 -999 0.090986 0.456546 -1.313985
2009-03-02 07:53:38 51°14.343 2°55.125 -999 0.090986 0.456554 -1.313985
2009-03-02 07:53:43 51°14.352 2°55.11 -999 0.090986 0.456554 -1.313985
2009-03-02 07:53:48 51°14.361 2°55.095 -999 0.090986 0.456554 -1.313985
2009-03-02 07:53:53 51°14.369 2°55.08 -999 0.090986 0.456575 -1.279161
2009-03-02 07:53:58 51°14.378 2°55.064 -999 0.090986 0.456582 -1.279161
2009-03-02 07:54:03 51°14.386 2°55.048 -999 0.090986 0.456589 -1.313985
2009-03-02 07:54:08 51°14.394 2°55.032 -999 0.090986 0.456589 -1.313985
2009-03-02 07:54:13 51°14.403 2°55.015 -999 0.090986 0.456589 -1.313985
2009-03-02 07:54:18 51°14.411 2°54.998 -999 0.090986 0.456597 -1.279161
2009-03-02 07:54:23 51°14.418 2°54.981 -999 0.090986 0.456597 -1.313985
2009-03-02 07:54:28 51°14.427 2°54.964 -999 0.090986 0.456597 -1.313985
2009-03-02 07:54:33 51°14.435 2°54.948 -999 0.090986 0.456597 -1.313985
2009-03-02 07:54:38 51°14.445 2°54.932 -999 0.090986 0.456597 -1.313985
2009-03-02 07:54:43 51°14.454 2°54.916 -999 0.090986 0.456597 -1.313985
2009-03-02 07:54:48 51°14.463 2°54.9 -999 0.090986 0.456597 -1.313985
2009-03-02 07:54:53 51°14.472 2°54.884 -999 0.090986 0.456597 -1.313985
2009-03-02 07:54:58 51°14.482 2°54.869 -999 0.090986 0.456604 -1.279161
2009-03-02 07:55:03 51°14.492 2°54.854 -999 0.090986 0.456604 -1.313985
2009-03-02 07:55:08 51°14.502 2°54.839 -999 0.090986 0.456611 -1.313985
2009-03-02 07:55:13 51°14.513 2°54.824 -999 0.090986 0.456611 -1.313985
2009-03-02 07:55:18 51°14.523 2°54.809 -999 0.090986 0.456611 -1.313985
2009-03-02 07:55:23 51°14.534 2°54.795 -999 0.090986 0.456618 -1.313985
2009-03-02 07:55:28 51°14.545 2°54.78 -999 0.090986 0.456618 -1.313985
2009-03-02 07:55:32 51°14.555 2°54.769 -999 0.091089 0.45716 -1.313985
2009-03-02 07:55:38 51°14.568 2°54.752 -999 0.090986 0.456632 -1.279161
2009-03-02 07:55:43 51°14.58 2°54.738 -999 0.090986 0.456632 -1.279161
2009-03-02 07:55:48 51°14.592 2°54.725 -999 0.091089 0.457174 -1.313985
2009-03-02 07:55:53 51°14.604 2°54.712 -999 0.091089 0.457189 -1.313985
2009-03-02 07:55:58 51°14.617 2°54.699 -999 0.091089 0.457203 -1.313985
2009-03-02 07:56:03 51°14.629 2°54.686 -999 0.091089 0.457217 -1.279161
2009-03-02 07:56:08 51°14.642 2°54.673 -999 0.091089 0.457232 -1.279161
2009-03-02 07:56:13 51°14.655 2°54.661 -999 0.091089 0.457232 -1.279161
2009-03-02 07:56:18 51°14.668 2°54.648 -999 0.091089 0.457239 -1.313985
2009-03-02 07:56:23 51°14.681 2°54.636 -999 0.091089 0.457253 -1.244337
2009-03-02 07:56:28 51°14.694 2°54.623 -999 0.091089 0.457268 -1.313985
2009-03-02 07:56:33 51°14.708 2°54.61 -999 0.091089 0.457275 -1.279161
2009-03-02 07:56:38 51°14.722 2°54.597 -999 0.091089 0.457289 -1.279161
2009-03-02 07:56:43 51°14.735 2°54.583 -999 0.091089 0.457289 -1.279161
2009-03-02 07:56:48 51°14.749 2°54.57 -999 0.091089 0.457289 -1.313985
2009-03-02 07:56:53 51°14.763 2°54.555 -999 0.091089 0.457311 -1.313985
2009-03-02 07:56:58 51°14.776 2°54.54 -999 0.091089 0.457311 -1.279161
2009-03-02 07:57:03 51°14.79 2°54.526 -999 0.091089 0.457325 -1.313985
2009-03-02 07:57:08 51°14.803 2°54.511 -999 0.091089 0.457318 -1.313985
2009-03-02 07:57:13 51°14.817 2°54.496 -999 0.091089 0.457318 -1.313985
2009-03-02 07:57:18 51°14.831 2°54.481 -999 0.091089 0.457332 -1.313985
2009-03-02 07:57:23 51°14.845 2°54.467 -999 0.091089 0.457339 -1.313985
2009-03-02 07:57:28 51°14.859 2°54.452 -999 0.091089 0.457347 -1.313985
2009-03-02 07:57:33 51°14.872 2°54.438 -999 0.091089 0.457354 -1.313985
2009-03-02 07:57:38 51°14.886 2°54.423 -999 0.091089 0.457361 -1.313985
2009-03-02 07:57:43 51°14.9 2°54.408 -999 0.091089 0.457361 -1.313985
2009-03-02 07:57:48 51°14.913 2°54.393 -999 0.091089 0.457368 -1.313985
2009-03-02 07:57:53 51°14.927 2°54.379 -999 0.091089 0.457375 -1.313985
2009-03-02 07:57:58 51°14.941 2°54.364 -999 0.091089 0.45739 -1.313985
2009-03-02 07:58:03 51°14.954 2°54.35 -999 0.091089 0.457411 -1.313985
2009-03-02 07:58:08 51°14.968 2°54.335 -999 0.091089 0.457433 -1.313985
2009-03-02 07:58:13 51°14.981 2°54.32 -999 0.091089 0.457433 -1.313985
2009-03-02 07:58:18 51°14.995 2°54.305 -999 0.091089 0.457454 -1.313985
2009-03-02 07:58:23 51°15.008 2°54.291 -999 0.091089 0.457476 -1.313985
2009-03-02 07:58:28 51°15.022 2°54.276 -999 0.091089 0.457512 -1.313985
2009-03-02 07:58:33 51°15.035 2°54.26 -999 0.091192 0.458069 -1.279161
2009-03-02 07:58:38 51°15.048 2°54.245 -999 0.091089 0.457548 -1.313985
2009-03-02 07:58:43 51°15.061 2°54.229 -999 0.091089 0.457548 -1.313985
2009-03-02 07:58:48 51°15.075 2°54.213 -999 0.091089 0.457562 -1.313985
2009-03-02 07:58:53 51°15.088 2°54.198 -999 0.091192 0.458097 -1.279161
2009-03-02 07:58:58 51°15.102 2°54.183 -999 0.091192 0.458112 -1.313985
2009-03-02 07:59:03 51°15.115 2°54.168 -999 0.091192 0.458126 -1.313985
2009-03-02 07:59:08 51°15.129 2°54.154 -999 0.091192 0.458141 -1.313985
2009-03-02 07:59:13 51°15.142 2°54.139 -999 0.091192 0.458141 -1.313985
2009-03-02 07:59:18 51°15.156 2°54.124 -999 0.091192 0.458141 -1.279161
2009-03-02 07:59:23 51°15.169 2°54.109 -999 0.091192 0.458155 -1.313985
2009-03-02 07:59:28 51°15.183 2°54.094 -999 0.091192 0.458155 -1.279161
2009-03-02 07:59:33 51°15.197 2°54.079 -999 0.091192 0.458162 -1.279161
2009-03-02 07:59:38 51°15.21 2°54.065 -999 0.091192 0.458162 -1.313985
2009-03-02 07:59:43 51°15.224 2°54.05 -999 0.091192 0.458162 -1.313985
2009-03-02 07:59:48 51°15.238 2°54.036 -999 0.091192 0.458162 -1.313985
2009-03-02 07:59:53 51°15.252 2°54.021 -999 0.091192 0.458162 -1.313985
2009-03-02 07:59:58 51°15.266 2°54.007 -999 0.091192 0.458169 -1.279161
2009-03-02 08:00:03 51°15.279 2°53.992 -999 0.091192 0.458177 -1.313985
2009-03-02 08:00:08 51°15.293 2°53.978 -999 0.091192 0.458177 -1.313985
2009-03-02 08:00:13 51°15.307 2°53.964 -999 0.091192 0.458177 -1.313985
2009-03-02 08:00:18 51°15.321 2°53.949 -999 0.091192 0.458184 -1.313985
2009-03-02 08:00:23 51°15.335 2°53.934 -999 0.091192 0.458184 -1.313985
2009-03-02 08:00:28 51°15.349 2°53.919 -999 0.091192 0.458184 -1.279161
2009-03-02 08:00:33 51°15.363 2°53.904 -999 0.091192 0.458191 -1.279161
2009-03-02 08:00:38 51°15.376 2°53.889 -999 0.091192 0.458184 -1.313985
2009-03-02 08:00:43 51°15.39 2°53.874 -999 0.091192 0.458184 -1.313985
2009-03-02 08:00:48 51°15.404 2°53.859 -999 0.091192 0.458184 -1.279161
2009-03-02 08:00:53 51°15.417 2°53.844 -999 0.091192 0.458177 -1.313985
2009-03-02 08:00:58 51°15.431 2°53.829 -999 0.091295 0.458712 -1.313985
2009-03-02 08:01:03 51°15.445 2°53.815 -999 0.091295 0.458712 -1.279161
2009-03-02 08:01:08 51°15.459 2°53.8 -999 0.091295 0.458705 -1.313985
2009-03-02 08:01:13 51°15.473 2°53.785 -999 0.091295 0.458705 -1.313985
2009-03-02 08:01:18 51°15.486 2°53.771 -999 0.091295 0.458698 -1.313985
2009-03-02 08:01:23 51°15.501 2°53.756 -999 0.091295 0.458698 -1.313985
2009-03-02 08:01:28 51°15.514 2°53.742 -999 0.091295 0.458683 -1.313985
2009-03-02 08:01:33 51°15.528 2°53.727 -999 0.091295 0.458683 -1.313985
2009-03-02 08:01:38 51°15.542 2°53.713 -999 0.091295 0.458683 -1.313985
2009-03-02 08:01:43 51°15.556 2°53.698 -999 0.091295 0.458683 -1.313985
2009-03-02 08:01:48 51°15.57 2°53.684 -999 0.091295 0.458691 -1.313985
2009-03-02 08:01:53 51°15.585 2°53.67 -999 0.091295 0.458691 -1.313985
2009-03-02 08:01:58 51°15.599 2°53.656 -999 0.091295 0.458698 -1.313985
2009-03-02 08:02:03 51°15.613 2°53.642 -999 0.091295 0.458705 -1.313985
2009-03-02 08:02:08 51°15.627 2°53.628 -999 0.091295 0.458705 -1.313985
2009-03-02 08:02:13 51°15.641 2°53.615 -999 0.091295 0.458705 -1.313985
2009-03-02 08:02:18 51°15.655 2°53.601 -999 0.091295 0.458712 -1.313985
2009-03-02 08:02:23 51°15.67 2°53.588 -999 0.091295 0.458719 -1.313985
2009-03-02 08:02:28 51°15.684 2°53.575 -999 0.091295 0.458727 -1.279161
2009-03-02 08:02:33 51°15.699 2°53.562 -999 0.091398 0.459269 -1.313985
2009-03-02 08:02:38 51°15.713 2°53.549 -999 0.091398 0.459277 -1.313985
2009-03-02 08:02:43 51°15.728 2°53.536 -999 0.091398 0.459277 -1.313985
2009-03-02 08:02:48 51°15.743 2°53.523 -999 0.091398 0.459291 -1.313985
2009-03-02 08:02:53 51°15.757 2°53.511 -999 0.091398 0.459313 -1.313985
2009-03-02 08:02:58 51°15.772 2°53.498 -999 0.091398 0.459334 -1.279161
2009-03-02 08:03:03 51°15.787 2°53.485 -999 0.091398 0.459349 -1.313985
2009-03-02 08:03:08 51°15.801 2°53.472 -999 0.091398 0.45937 -1.279161
2009-03-02 08:03:13 51°15.816 2°53.459 -999 0.091398 0.45937 -1.279161
2009-03-02 08:03:18 51°15.83 2°53.445 -999 0.091398 0.459392 -1.313985
2009-03-02 08:03:23 51°15.845 2°53.433 -999 0.091398 0.459406 -1.313985
2009-03-02 08:03:28 51°15.86 2°53.419 -999 0.091398 0.459428 -1.279161
2009-03-02 08:03:33 51°15.874 2°53.406 -999 0.091398 0.459443 -1.279161
2009-03-02 08:03:38 51°15.889 2°53.393 -999 0.091398 0.459457 -1.313985
2009-03-02 08:03:43 51°15.903 2°53.38 -999 0.091398 0.459479 -1.313985
2009-03-02 08:03:48 51°15.918 2°53.366 -999 0.091398 0.459479 -1.313985
2009-03-02 08:03:53 51°15.933 2°53.353 -999 0.091398 0.4595 -1.313985
2009-03-02 08:03:58 51°15.947 2°53.34 -999 0.091398 0.459508 -1.313985
2009-03-02 08:04:03 51°15.962 2°53.327 -999 0.091398 0.459529 -1.279161
2009-03-02 08:04:08 51°15.977 2°53.314 -999 0.091501 0.46008 -1.348809
2009-03-02 08:04:13 51°15.991 2°53.301 -999 0.091501 0.46008 -1.348809
2009-03-02 08:04:18 51°16.006 2°53.287 -999 0.091501 0.460094 -1.313985
2009-03-02 08:04:23 51°16.02 2°53.274 -999 0.091501 0.460109 -1.313985
2009-03-02 08:04:28 51°16.035 2°53.261 -999 0.091501 0.46013 -1.313985
2009-03-02 08:04:33 51°16.05 2°53.248 -999 0.091501 0.46013 -1.279161
2009-03-02 08:04:38 51°16.065 2°53.235 -999 0.091501 0.460152 -1.313985
2009-03-02 08:04:43 51°16.08 2°53.223 -999 0.091501 0.460152 -1.313985
2009-03-02 08:04:48 51°16.095 2°53.211 -999 0.091501 0.460159 -1.313985
2009-03-02 08:04:53 51°16.11 2°53.2 -999 0.091501 0.460167 -1.313985
2009-03-02 08:04:58 51°16.125 2°53.188 -999 0.091501 0.460174 -1.279161
2009-03-02 08:05:03 51°16.14 2°53.177 -999 0.091501 0.460181 -1.313985
2009-03-02 08:05:08 51°16.156 2°53.166 -999 0.091501 0.460181 -1.313985
2009-03-02 08:05:13 51°16.171 2°53.155 -999 0.091501 0.460181 -1.313985
2009-03-02 08:05:18 51°16.186 2°53.144 -999 0.091501 0.460181 -1.279161
2009-03-02 08:05:23 51°16.202 2°53.133 -999 0.091501 0.460188 -1.313985
2009-03-02 08:05:28 51°16.217 2°53.122 -999 0.091501 0.460188 -1.313985
2009-03-02 08:05:33 51°16.232 2°53.111 -999 0.091604 0.460717 -1.244337
2009-03-02 08:05:38 51°16.247 2°53.1 -999 0.091604 0.460724 -1.313985
2009-03-02 08:05:43 51°16.263 2°53.089 -999 0.091604 0.460724 -1.313985
2009-03-02 08:05:48 51°16.278 2°53.078 -999 0.091604 0.460724 -1.313985
2009-03-02 08:05:53 51°16.293 2°53.067 -999 0.091604 0.460724 -1.313985
2009-03-02 08:05:58 51°16.308 2°53.056 -999 0.091604 0.460732 -1.313985
2009-03-02 08:06:03 51°16.324 2°53.045 -999 0.091604 0.460739 -1.313985
2009-03-02 08:06:08 51°16.339 2°53.034 -999 0.091604 0.460746 -1.279161
2009-03-02 08:06:13 51°16.354 2°53.023 -999 0.091604 0.460746 -1.279161
2009-03-02 08:06:18 51°16.369 2°53.012 -999 0.091604 0.460753 -1.313985
2009-03-02 08:06:23 51°16.384 2°53 -999 0.091604 0.460768 -1.244337
2009-03-02 08:06:28 51°16.4 2°52.989 -999 0.091604 0.460775 -1.313985
2009-03-02 08:06:33 51°16.415 2°52.977 -999 0.091604 0.46079 -1.313985
2009-03-02 08:06:38 51°16.43 2°52.966 -999 0.091604 0.460797 -1.313985
2009-03-02 08:06:43 51°16.446 2°52.955 -999 0.091604 0.460797 -1.313985
2009-03-02 08:06:48 51°16.461 2°52.943 -999 0.091604 0.460811 -1.313985
2009-03-02 08:06:53 51°16.476 2°52.932 -999 0.091604 0.460811 -1.313985
2009-03-02 08:06:58 51°16.491 2°52.921 -999 0.091707 0.461362 -1.279161
2009-03-02 08:07:03 51°16.507 2°52.91 -999 0.091707 0.461369 -1.279161
2009-03-02 08:07:08 51°16.522 2°52.899 -999 0.091707 0.461377 -1.279161
2009-03-02 08:07:13 51°16.537 2°52.888 -999 0.091707 0.461377 -1.279161
2009-03-02 08:07:18 51°16.552 2°52.877 -999 0.091707 0.461384 -1.313985
2009-03-02 08:07:23 51°16.568 2°52.866 -999 0.091707 0.461398 -1.313985
2009-03-02 08:07:28 51°16.583 2°52.855 -999 0.091707 0.461406 -1.313985
2009-03-02 08:07:33 51°16.598 2°52.844 -999 0.091707 0.461413 -1.348809
2009-03-02 08:07:38 51°16.614 2°52.833 -999 0.091707 0.46142 -1.313985
2009-03-02 08:07:43 51°16.629 2°52.822 -999 0.091707 0.46142 -1.313985
2009-03-02 08:07:48 51°16.644 2°52.811 -999 0.091707 0.461427 -1.313985
2009-03-02 08:07:53 51°16.659 2°52.8 -999 0.091707 0.461442 -1.313985
2009-03-02 08:07:58 51°16.674 2°52.788 -999 0.091707 0.461449 -1.313985
2009-03-02 08:08:03 51°16.69 2°52.778 -999 0.091707 0.461457 -1.313985
2009-03-02 08:08:08 51°16.705 2°52.767 -999 0.09181 0.462 -1.313985
2009-03-02 08:08:13 51°16.72 2°52.755 -999 0.09181 0.462 -1.313985
2009-03-02 08:08:18 51°16.735 2°52.744 -999 0.09181 0.461993 -1.313985
2009-03-02 08:08:23 51°16.751 2°52.733 -999 0.09181 0.462 -1.313985
2009-03-02 08:08:28 51°16.766 2°52.722 -999 0.09181 0.461993 -1.313985
2009-03-02 08:08:33 51°16.781 2°52.712 -999 0.09181 0.461993 -1.313985
2009-03-02 08:08:38 51°16.796 2°52.701 -999 0.09181 0.461993 -1.313985
2009-03-02 08:08:43 51°16.811 2°52.69 -999 0.09181 0.461993 -1.313985
2009-03-02 08:08:48 51°16.827 2°52.679 -999 0.09181 0.461986 -1.313985
2009-03-02 08:08:53 51°16.842 2°52.669 -999 0.09181 0.461978 -1.313985
2009-03-02 08:08:58 51°16.857 2°52.658 -999 0.09181 0.461986 -1.313985
2009-03-02 08:09:03 51°16.872 2°52.647 -999 0.09181 0.461978 -1.313985
2009-03-02 08:09:08 51°16.887 2°52.636 -999 0.09181 0.461978 -1.313985
2009-03-02 08:09:13 51°16.903 2°52.625 -999 0.09181 0.461978 -1.313985
2009-03-02 08:09:18 51°16.918 2°52.614 -999 0.09181 0.461978 -1.313985
2009-03-02 08:09:23 51°16.933 2°52.604 -999 0.09181 0.461986 -1.279161
2009-03-02 08:09:28 51°16.949 2°52.593 -999 0.09181 0.462 -1.313985
2009-03-02 08:09:33 51°16.964 2°52.582 -999 0.09181 0.462015 -1.313985
2009-03-02 08:09:38 51°16.979 2°52.571 -999 0.091913 0.462573 -1.279161
2009-03-02 08:09:43 51°16.995 2°52.56 -999 0.091913 0.462573 -1.279161
2009-03-02 08:09:48 51°17.01 2°52.55 -999 0.091913 0.462595 -1.313985
2009-03-02 08:09:53 51°17.025 2°52.539 -999 0.091913 0.46261 -1.279161
2009-03-02 08:09:58 51°17.041 2°52.529 -999 0.091913 0.462631 -1.313985
2009-03-02 08:10:03 51°17.056 2°52.518 -999 0.091913 0.462653 -1.313985
2009-03-02 08:10:08 51°17.071 2°52.507 -999 0.091913 0.462661 -1.313985
2009-03-02 08:10:13 51°17.087 2°52.497 -999 0.091913 0.462661 -1.313985
2009-03-02 08:10:18 51°17.102 2°52.486 -999 0.091913 0.462682 -1.313985
2009-03-02 08:10:23 51°17.118 2°52.475 -999 0.091913 0.462697 -1.244337
2009-03-02 08:10:28 51°17.133 2°52.464 -999 0.091913 0.462712 -1.244337
2009-03-02 08:10:33 51°17.148 2°52.453 -999 0.091913 0.462726 -1.313985
2009-03-02 08:10:38 51°17.164 2°52.442 -999 0.091913 0.462741 -1.313985
2009-03-02 08:10:43 51°17.179 2°52.432 -999 0.091913 0.462741 -1.313985
2009-03-02 08:10:48 51°17.194 2°52.421 -999 0.091913 0.462748 -1.279161
2009-03-02 08:10:53 51°17.21 2°52.41 -999 0.091913 0.462763 -1.279161
2009-03-02 08:10:58 51°17.225 2°52.399 -999 0.092015 0.463314 -1.313985
2009-03-02 08:11:03 51°17.24 2°52.388 -999 0.092015 0.463321 -1.313985
2009-03-02 08:11:08 51°17.255 2°52.377 -999 0.092015 0.463329 -1.279161
2009-03-02 08:11:13 51°17.271 2°52.367 -999 0.092015 0.463329 -1.279161
2009-03-02 08:11:18 51°17.286 2°52.357 -999 0.092015 0.463343 -1.313985
2009-03-02 08:11:23 51°17.301 2°52.347 -999 0.092015 0.463343 -1.313985
2009-03-02 08:11:28 51°17.317 2°52.336 -999 0.092015 0.463358 -1.313985
2009-03-02 08:11:33 51°17.332 2°52.325 -999 0.092015 0.46335 -1.279161
2009-03-02 08:11:38 51°17.347 2°52.314 -999 0.092015 0.46335 -1.279161
2009-03-02 08:11:43 51°17.362 2°52.303 -999 0.092015 0.46335 -1.279161
2009-03-02 08:11:48 51°17.378 2°52.293 -999 0.092015 0.463358 -1.313985
2009-03-02 08:11:53 51°17.393 2°52.282 -999 0.092015 0.463358 -1.313985
2009-03-02 08:11:58 51°17.408 2°52.272 -999 0.092015 0.463358 -1.244337
2009-03-02 08:12:03 51°17.423 2°52.261 -999 0.092015 0.463358 -1.313985
2009-03-02 08:12:08 51°17.438 2°52.251 -999 0.092015 0.463358 -1.313985
2009-03-02 08:12:13 51°17.453 2°52.24 -999 0.092015 0.463358 -1.313985
2009-03-02 08:12:18 51°17.468 2°52.23 -999 0.092015 0.463358 -1.313985
2009-03-02 08:12:23 51°17.484 2°52.219 -999 0.092015 0.463358 -1.313985
2009-03-02 08:12:28 51°17.499 2°52.209 -999 0.092118 0.463902 -1.279161
2009-03-02 08:12:33 51°17.514 2°52.199 -999 0.092118 0.463902 -1.279161
2009-03-02 08:12:38 51°17.529 2°52.188 -999 0.092118 0.463909 -1.313985
2009-03-02 08:12:43 51°17.544 2°52.178 -999 0.092118 0.463924 -1.244337
2009-03-02 08:12:48 51°17.559 2°52.167 -999 0.092118 0.463924 -1.244337
2009-03-02 08:12:53 51°17.575 2°52.158 -999 0.092118 0.463924 -1.279161
2009-03-02 08:12:58 51°17.59 2°52.148 -999 0.092118 0.463946 -1.313985
2009-03-02 08:13:03 51°17.606 2°52.139 -999 0.092118 0.463946 -1.313985
2009-03-02 08:13:08 51°17.621 2°52.13 -999 0.092118 0.46396 -1.313985
2009-03-02 08:13:13 51°17.637 2°52.122 -999 0.092118 0.46396 -1.313985
2009-03-02 08:13:18 51°17.652 2°52.113 -999 0.092118 0.463968 -1.313985
2009-03-02 08:13:23 51°17.668 2°52.104 -999 0.092118 0.46399 -1.313985
2009-03-02 08:13:28 51°17.683 2°52.096 -999 0.092118 0.46399 -1.313985
2009-03-02 08:13:33 51°17.699 2°52.087 -999 0.092118 0.464004 -1.279161
2009-03-02 08:13:38 51°17.714 2°52.079 -999 0.092118 0.464004 -1.279161
2009-03-02 08:13:43 51°17.73 2°52.071 -999 0.092118 0.464004 -1.279161
2009-03-02 08:13:48 51°17.745 2°52.062 -999 0.092118 0.464019 -1.279161
2009-03-02 08:13:53 51°17.761 2°52.054 -999 0.092118 0.464012 -1.313985
2009-03-02 08:13:58 51°17.776 2°52.046 -999 0.092221 0.464556 -1.313985
2009-03-02 08:14:03 51°17.792 2°52.038 -999 0.092221 0.464556 -1.279161
2009-03-02 08:14:08 51°17.807 2°52.03 -999 0.092221 0.464563 -1.313985
2009-03-02 08:14:13 51°17.823 2°52.022 -999 0.092221 0.464563 -1.313985
2009-03-02 08:14:18 51°17.839 2°52.014 -999 0.092221 0.464578 -1.279161
2009-03-02 08:14:23 51°17.854 2°52.007 -999 0.092221 0.464585 -1.279161
2009-03-02 08:14:28 51°17.87 2°51.999 -999 0.092221 0.4646 -1.313985
2009-03-02 08:14:33 51°17.886 2°51.991 -999 0.092221 0.464607 -1.279161
2009-03-02 08:14:38 51°17.901 2°51.983 -999 0.092221 0.464615 -1.279161
2009-03-02 08:14:43 51°17.917 2°51.975 -999 0.092221 0.464615 -1.279161
2009-03-02 08:14:48 51°17.933 2°51.967 -999 0.092221 0.464622 -1.279161
2009-03-02 08:14:53 51°17.948 2°51.959 -999 0.092221 0.464629 -1.313985
2009-03-02 08:14:58 51°17.964 2°51.951 -999 0.092221 0.464637 -1.348809
2009-03-02 08:15:03 51°17.979 2°51.943 -999 0.092221 0.464644 -1.313985
2009-03-02 08:15:08 51°17.995 2°51.935 -999 0.092221 0.464651 -1.313985
2009-03-02 08:15:13 51°18.011 2°51.927 -999 0.092221 0.464651 -1.313985
2009-03-02 08:15:18 51°18.027 2°51.92 -999 0.092221 0.464651 -1.313985
2009-03-02 08:15:23 51°18.042 2°51.912 -999 0.092221 0.464659 -1.279161
2009-03-02 08:15:28 51°18.058 2°51.904 -999 0.092221 0.464659 -1.279161
2009-03-02 08:15:33 51°18.074 2°51.896 -999 0.092221 0.464659 -1.279161
2009-03-02 08:15:38 51°18.089 2°51.888 -999 0.092221 0.464651 -1.313985
2009-03-02 08:15:43 51°18.105 2°51.88 -999 0.092221 0.464651 -1.313985
2009-03-02 08:15:48 51°18.121 2°51.872 -999 0.092324 0.465188 -1.313985
2009-03-02 08:15:53 51°18.136 2°51.864 -999 0.092324 0.465181 -1.313985
2009-03-02 08:15:58 51°18.152 2°51.857 -999 0.092324 0.465181 -1.279161
2009-03-02 08:16:03 51°18.168 2°51.849 -999 0.092324 0.465181 -1.313985
2009-03-02 08:16:08 51°18.184 2°51.842 -999 0.092324 0.465181 -1.313985
2009-03-02 08:16:13 51°18.2 2°51.835 -999 0.092324 0.465174 -1.313985
2009-03-02 08:16:18 51°18.216 2°51.828 -999 0.092324 0.465174 -1.313985
2009-03-02 08:16:23 51°18.231 2°51.819 -999 0.092324 0.465166 -1.313985
2009-03-02 08:16:28 51°18.247 2°51.812 -999 0.092324 0.465166 -1.313985
2009-03-02 08:16:33 51°18.263 2°51.804 -999 0.092324 0.465174 -1.313985
2009-03-02 08:16:38 51°18.279 2°51.796 -999 0.092324 0.465166 -1.313985
2009-03-02 08:16:43 51°18.295 2°51.789 -999 0.092324 0.465166 -1.313985
2009-03-02 08:16:48 51°18.31 2°51.782 -999 0.092324 0.465181 -1.348809
2009-03-02 08:16:53 51°18.326 2°51.774 -999 0.092324 0.465181 -1.313985
2009-03-02 08:16:58 51°18.342 2°51.767 -999 0.092324 0.465188 -1.313985
2009-03-02 08:17:03 51°18.358 2°51.759 -999 0.092324 0.465188 -1.313985
2009-03-02 08:17:08 51°18.374 2°51.75 -999 0.092324 0.465196 -1.313985
2009-03-02 08:17:13 51°18.39 2°51.742 -999 0.092324 0.465196 -1.313985
2009-03-02 08:17:18 51°18.405 2°51.734 -999 0.092324 0.46521 -1.313985
2009-03-02 08:17:23 51°18.421 2°51.726 -999 0.092324 0.465218 -1.279161
2009-03-02 08:17:28 51°18.437 2°51.718 -999 0.092324 0.465232 -1.279161
2009-03-02 08:17:33 51°18.453 2°51.711 -999 0.092324 0.46524 -1.313985
2009-03-02 08:17:38 51°18.469 2°51.703 -999 0.092427 0.465792 -1.313985
2009-03-02 08:17:43 51°18.485 2°51.696 -999 0.092427 0.465792 -1.313985
2009-03-02 08:17:48 51°18.502 2°51.689 -999 0.092427 0.465799 -1.313985
2009-03-02 08:17:53 51°18.518 2°51.681 -999 0.092427 0.465814 -1.313985
2009-03-02 08:17:58 51°18.534 2°51.674 -999 0.092427 0.465829 -1.279161
2009-03-02 08:18:03 51°18.55 2°51.667 -999 0.092427 0.465843 -1.279161
2009-03-02 08:18:08 51°18.566 2°51.659 -999 0.092427 0.465858 -1.313985
2009-03-02 08:18:13 51°18.582 2°51.652 -999 0.092427 0.465858 -1.313985
2009-03-02 08:18:18 51°18.598 2°51.644 -999 0.092427 0.465873 -1.313985
2009-03-02 08:18:23 51°18.614 2°51.637 -999 0.092427 0.46588 -1.313985
2009-03-02 08:18:28 51°18.63 2°51.629 -999 0.092427 0.465895 -1.279161
2009-03-02 08:18:33 51°18.647 2°51.621 -999 0.092427 0.465895 -1.313985
2009-03-02 08:18:38 51°18.663 2°51.614 -999 0.092427 0.465909 -1.279161
2009-03-02 08:18:43 51°18.679 2°51.606 -999 0.092427 0.465909 -1.279161
2009-03-02 08:18:48 51°18.695 2°51.598 -999 0.092427 0.465924 -1.313985
2009-03-02 08:18:53 51°18.711 2°51.59 -999 0.092427 0.465931 -1.313985
2009-03-02 08:18:58 51°18.727 2°51.581 -999 0.092427 0.465946 -1.313985
2009-03-02 08:19:03 51°18.743 2°51.573 -999 0.092427 0.465946 -1.313985
2009-03-02 08:19:08 51°18.759 2°51.566 -999 0.092427 0.465968 -1.279161
2009-03-02 08:19:13 51°18.775 2°51.557 -999 0.092427 0.465968 -1.279161
2009-03-02 08:19:18 51°18.791 2°51.549 -999 0.092427 0.465961 -1.313985
2009-03-02 08:19:23 51°18.807 2°51.541 -999 0.092427 0.465968 -1.313985
2009-03-02 08:19:28 51°18.823 2°51.534 -999 0.09253 0.466513 -1.313985
2009-03-02 08:19:33 51°18.84 2°51.526 -999 0.09253 0.466528 -1.313985
2009-03-02 08:19:38 51°18.856 2°51.518 -999 0.09253 0.466535 -1.313985
2009-03-02 08:19:43 51°18.872 2°51.51 -999 0.09253 0.466535 -1.313985
2009-03-02 08:19:48 51°18.888 2°51.503 -999 0.09253 0.466528 -1.313985
2009-03-02 08:19:53 51°18.904 2°51.495 -999 0.09253 0.466535 -1.313985
2009-03-02 08:19:58 51°18.921 2°51.487 -999 0.09253 0.466543 -1.279161
2009-03-02 08:20:03 51°18.937 2°51.479 -999 0.09253 0.46655 -1.313985
2009-03-02 08:20:08 51°18.953 2°51.471 -999 0.09253 0.46655 -1.313985
2009-03-02 08:20:13 51°18.969 2°51.463 -999 0.09253 0.46655 -1.313985
2009-03-02 08:20:18 51°18.985 2°51.454 -999 0.09253 0.46655 -1.313985
2009-03-02 08:20:23 51°19.001 2°51.446 -999 0.09253 0.466557 -1.279161
2009-03-02 08:20:28 51°19.017 2°51.438 -999 0.09253 0.466565 -1.279161
2009-03-02 08:20:33 51°19.033 2°51.429 -999 0.09253 0.466572 -1.313985
2009-03-02 08:20:38 51°19.049 2°51.422 -999 0.09253 0.466572 -1.279161
2009-03-02 08:20:43 51°19.065 2°51.413 -999 0.09253 0.466572 -1.279161
2009-03-02 08:20:48 51°19.081 2°51.406 -999 0.09253 0.466587 -1.313985
2009-03-02 08:20:53 51°19.097 2°51.397 -999 0.09253 0.466601 -1.313985
2009-03-02 08:20:58 51°19.113 2°51.39 -999 0.09253 0.466601 -1.313985
2009-03-02 08:21:03 51°19.128 2°51.381 -999 0.092633 0.467154 -1.313985
2009-03-02 08:21:08 51°19.144 2°51.374 -999 0.09253 0.466624 -1.313985
2009-03-02 08:21:13 51°19.16 2°51.366 -999 0.09253 0.466624 -1.313985
2009-03-02 08:21:18 51°19.175 2°51.358 -999 0.092633 0.467169 -1.279161
2009-03-02 08:21:23 51°19.191 2°51.35 -999 0.092633 0.467176 -1.313985
2009-03-02 08:21:28 51°19.207 2°51.342 -999 0.092633 0.467191 -1.313985
2009-03-02 08:21:33 51°19.222 2°51.333 -999 0.092633 0.467198 -1.313985
2009-03-02 08:21:38 51°19.238 2°51.326 -999 0.092633 0.467213 -1.313985
2009-03-02 08:21:43 51°19.254 2°51.318 -999 0.092633 0.46722 -1.313985
2009-03-02 08:21:48 51°19.269 2°51.31 -999 0.092633 0.46722 -1.313985
2009-03-02 08:21:53 51°19.285 2°51.302 -999 0.092633 0.467228 -1.313985
2009-03-02 08:21:58 51°19.301 2°51.294 -999 0.092633 0.467242 -1.313985
2009-03-02 08:22:03 51°19.317 2°51.286 -999 0.092633 0.46725 -1.313985
2009-03-02 08:22:08 51°19.332 2°51.278 -999 0.092633 0.467265 -1.313985
2009-03-02 08:22:13 51°19.348 2°51.269 -999 0.092633 0.467265 -1.313985
2009-03-02 08:22:18 51°19.363 2°51.261 -999 0.092633 0.467265 -1.279161
2009-03-02 08:22:23 51°19.379 2°51.254 -999 0.092633 0.467287 -1.279161
2009-03-02 08:22:28 51°19.394 2°51.244 -999 0.092633 0.467294 -1.279161
2009-03-02 08:22:33 51°19.41 2°51.236 -999 0.092633 0.467294 -1.279161
2009-03-02 08:22:38 51°19.425 2°51.227 -999 0.092633 0.467309 -1.279161
2009-03-02 08:22:43 51°19.441 2°51.218 -999 0.092633 0.467309 -1.279161
2009-03-02 08:22:48 51°19.456 2°51.208 -999 0.092633 0.467316 -1.313985
2009-03-02 08:22:53 51°19.472 2°51.199 -999 0.092633 0.467324 -1.313985
2009-03-02 08:22:58 51°19.488 2°51.19 -999 0.092633 0.467331 -1.279161
2009-03-02 08:23:03 51°19.503 2°51.181 -999 0.092633 0.467331 -1.279161
2009-03-02 08:23:08 51°19.519 2°51.173 -999 0.092736 0.467891 -1.279161
2009-03-02 08:23:13 51°19.535 2°51.164 -999 0.092736 0.467891 -1.279161
2009-03-02 08:23:18 51°19.551 2°51.156 -999 0.092736 0.467891 -1.313985
2009-03-02 08:23:23 51°19.566 2°51.147 -999 0.092736 0.467906 -1.313985
2009-03-02 08:23:28 51°19.582 2°51.14 -999 0.092736 0.467906 -1.313985
2009-03-02 08:23:33 51°19.598 2°51.132 -999 0.092736 0.467921 -1.313985
2009-03-02 08:23:38 51°19.614 2°51.124 -999 0.092736 0.467921 -1.279161
2009-03-02 08:23:43 51°19.63 2°51.116 -999 0.092736 0.467921 -1.279161
2009-03-02 08:23:48 51°19.646 2°51.108 -999 0.092736 0.467928 -1.279161
2009-03-02 08:23:53 51°19.662 2°51.1 -999 0.092736 0.467935 -1.313985
2009-03-02 08:23:58 51°19.677 2°51.092 -999 0.092736 0.467935 -1.279161
2009-03-02 08:24:03 51°19.693 2°51.083 -999 0.092736 0.467935 -1.313985
2009-03-02 08:24:08 51°19.709 2°51.075 -999 0.092736 0.467943 -1.313985
2009-03-02 08:24:13 51°19.725 2°51.066 -999 0.092736 0.467943 -1.313985
2009-03-02 08:24:18 51°19.74 2°51.057 -999 0.092736 0.467935 -1.279161
2009-03-02 08:24:23 51°19.756 2°51.046 -999 0.092736 0.467943 -1.279161
2009-03-02 08:24:28 51°19.771 2°51.037 -999 0.092736 0.467943 -1.313985
2009-03-02 08:24:33 51°19.787 2°51.026 -999 0.092736 0.46795 -1.313985
2009-03-02 08:24:38 51°19.803 2°51.016 -999 0.092736 0.467958 -1.313985
2009-03-02 08:24:43 51°19.818 2°51.005 -999 0.092736 0.467958 -1.313985
2009-03-02 08:24:48 51°19.834 2°50.995 -999 0.092736 0.467958 -1.313985
2009-03-02 08:24:53 51°19.849 2°50.984 -999 0.092736 0.467972 -1.279161
2009-03-02 08:24:58 51°19.864 2°50.972 -999 0.092736 0.46798 -1.313985
2009-03-02 08:25:03 51°19.88 2°50.961 -999 0.092736 0.467987 -1.279161
2009-03-02 08:25:08 51°19.895 2°50.95 -999 0.092736 0.468002 -1.313985
2009-03-02 08:25:13 51°19.911 2°50.939 -999 0.092736 0.468017 -1.313985
2009-03-02 08:25:18 51°19.926 2°50.928 -999 0.092736 0.468017 -1.313985
2009-03-02 08:25:23 51°19.942 2°50.918 -999 0.092736 0.468024 -1.313985
2009-03-02 08:25:28 51°19.958 2°50.907 -999 0.092736 0.468032 -1.279161
2009-03-02 08:25:33 51°19.974 2°50.897 -999 0.092839 0.468577 -1.279161
2009-03-02 08:25:38 51°19.989 2°50.887 -999 0.092839 0.468585 -1.174688
2009-03-02 08:25:43 51°20.005 2°50.877 -999 0.092839 0.468585 -1.174688
2009-03-02 08:25:48 51°20.021 2°50.867 -999 0.092839 0.468592 -1.313985
2009-03-02 08:25:53 51°20.037 2°50.857 -999 0.092839 0.468592 -1.279161
2009-03-02 08:25:58 51°20.053 2°50.846 -999 0.092839 0.468592 -1.313985
2009-03-02 08:26:03 51°20.069 2°50.836 -999 0.092839 0.468599 -1.313985
2009-03-02 08:26:08 51°20.085 2°50.825 -999 0.092839 0.468599 -1.313985
2009-03-02 08:26:13 51°20.1 2°50.815 -999 0.092839 0.468599 -1.313985
2009-03-02 08:26:18 51°20.116 2°50.804 -999 0.092839 0.468607 -1.279161
2009-03-02 08:26:23 51°20.131 2°50.793 -999 0.092839 0.468614 -1.313985
2009-03-02 08:26:28 51°20.146 2°50.78 -999 0.092839 0.468636 -1.244337
2009-03-02 08:26:33 51°20.162 2°50.768 -999 0.092839 0.468644 -1.279161
2009-03-02 08:26:38 51°20.177 2°50.754 -999 0.092839 0.468674 -1.313985
2009-03-02 08:26:43 51°20.192 2°50.74 -999 0.092839 0.468674 -1.313985
2009-03-02 08:26:48 51°20.206 2°50.726 -999 0.092839 0.468674 -1.279161
2009-03-02 08:26:53 51°20.221 2°50.71 -999 0.092839 0.468703 -1.279161
2009-03-02 08:26:58 51°20.235 2°50.695 -999 0.092839 0.468711 -1.279161
2009-03-02 08:27:03 51°20.25 2°50.68 -999 0.092839 0.468725 -1.279161
2009-03-02 08:27:08 51°20.264 2°50.664 -999 0.092839 0.46874 -1.313985
2009-03-02 08:27:13 51°20.278 2°50.648 -999 0.092839 0.46874 -1.313985
2009-03-02 08:27:18 51°20.291 2°50.629 -999 0.092839 0.468762 -1.279161
2009-03-02 08:27:23 51°20.305 2°50.611 -999 0.092839 0.468755 -1.279161
2009-03-02 08:27:28 51°20.318 2°50.592 -999 0.092839 0.468777 -1.279161
2009-03-02 08:27:33 51°20.33 2°50.573 -999 0.092839 0.468777 -1.279161
2009-03-02 08:27:38 51°20.343 2°50.553 -999 0.092839 0.468792 -1.313985
2009-03-02 08:27:43 51°20.355 2°50.533 -999 0.092839 0.468792 -1.313985
2009-03-02 08:27:48 51°20.368 2°50.513 -999 0.092839 0.468792 -1.279161
2009-03-02 08:27:53 51°20.38 2°50.493 -999 0.092839 0.468792 -1.313985
2009-03-02 08:27:58 51°20.392 2°50.472 -999 0.092839 0.468799 -1.279161
2009-03-02 08:28:03 51°20.404 2°50.452 -999 0.092839 0.468807 -1.279161
2009-03-02 08:28:08 51°20.416 2°50.432 -999 0.092942 0.469345 -1.279161
2009-03-02 08:28:13 51°20.429 2°50.412 -999 0.092942 0.469345 -1.279161
2009-03-02 08:28:18 51°20.441 2°50.391 -999 0.092942 0.46936 -1.279161
2009-03-02 08:28:23 51°20.453 2°50.371 -999 0.092942 0.469368 -1.279161
2009-03-02 08:28:28 51°20.465 2°50.35 -999 0.092942 0.46939 -1.313985
2009-03-02 08:28:33 51°20.477 2°50.33 -999 0.092942 0.469405 -1.279161
2009-03-02 08:28:38 51°20.489 2°50.309 -999 0.092942 0.46942 -1.313985
2009-03-02 08:28:43 51°20.501 2°50.288 -999 0.092942 0.469434 -1.313985
2009-03-02 08:28:48 51°20.513 2°50.268 -999 0.092942 0.469434 -1.313985
2009-03-02 08:28:53 51°20.525 2°50.247 -999 0.092942 0.469449 -1.279161
2009-03-02 08:28:58 51°20.537 2°50.226 -999 0.092942 0.469464 -1.279161
2009-03-02 08:29:03 51°20.549 2°50.205 -999 0.092942 0.469464 -1.279161
2009-03-02 08:29:08 51°20.56 2°50.184 -999 0.092942 0.469472 -1.279161
2009-03-02 08:29:13 51°20.572 2°50.163 -999 0.092942 0.469472 -1.279161
2009-03-02 08:29:18 51°20.584 2°50.142 -999 0.092942 0.469479 -1.313985
2009-03-02 08:29:23 51°20.596 2°50.122 -999 0.092942 0.469486 -1.313985
2009-03-02 08:29:28 51°20.608 2°50.102 -999 0.092942 0.469494 -1.313985
2009-03-02 08:29:33 51°20.62 2°50.082 -999 0.092942 0.469501 -1.313985
2009-03-02 08:29:38 51°20.632 2°50.062 -999 0.092942 0.469509 -1.279161
2009-03-02 08:29:43 51°20.644 2°50.042 -999 0.092942 0.469509 -1.279161
2009-03-02 08:29:48 51°20.657 2°50.021 -999 0.092942 0.469516 -1.313985
2009-03-02 08:29:53 51°20.669 2°50.001 -999 0.092942 0.469531 -1.313985
2009-03-02 08:29:58 51°20.681 2°49.981 -999 0.092942 0.469538 -1.313985
2009-03-02 08:30:03 51°20.693 2°49.961 -999 0.092942 0.469546 -1.279161
2009-03-02 08:30:08 51°20.705 2°49.94 -999 0.092942 0.469546 -1.279161
2009-03-02 08:30:13 51°20.717 2°49.92 -999 0.092942 0.469546 -1.279161
2009-03-02 08:30:18 51°20.729 2°49.9 -999 0.092942 0.469561 -1.313985
2009-03-02 08:30:23 51°20.742 2°49.881 -999 0.092942 0.469576 -1.313985
2009-03-02 08:30:28 51°20.755 2°49.862 -999 0.092942 0.46959 -1.313985
2009-03-02 08:30:33 51°20.767 2°49.843 -999 0.092942 0.469598 -1.313985
2009-03-02 08:30:38 51°20.78 2°49.824 -999 0.092942 0.46962 -1.279161
2009-03-02 08:30:43 51°20.793 2°49.805 -999 0.092942 0.46962 -1.279161
2009-03-02 08:30:48 51°20.806 2°49.786 -999 0.092942 0.46962 -1.279161
2009-03-02 08:30:53 51°20.819 2°49.768 -999 0.092942 0.469628 -1.313985
2009-03-02 08:30:58 51°20.832 2°49.749 -999 0.092942 0.469635 -1.279161
2009-03-02 08:31:03 51°20.844 2°49.73 -999 0.092942 0.469642 -1.279161
2009-03-02 08:31:08 51°20.857 2°49.711 -999 0.092942 0.46965 -1.313985
2009-03-02 08:31:13 51°20.87 2°49.692 -999 0.092942 0.46965 -1.313985
2009-03-02 08:31:18 51°20.883 2°49.674 -999 0.092942 0.46965 -1.313985
2009-03-02 08:31:23 51°20.896 2°49.655 -999 0.093045 0.470204 -1.313985
2009-03-02 08:31:28 51°20.909 2°49.637 -999 0.092942 0.469665 -1.279161
2009-03-02 08:31:33 51°20.922 2°49.618 -999 0.092942 0.46968 -1.279161
2009-03-02 08:31:38 51°20.935 2°49.599 -999 0.092942 0.46968 -1.313985
2009-03-02 08:31:43 51°20.948 2°49.581 -999 0.092942 0.46968 -1.313985
2009-03-02 08:31:48 51°20.962 2°49.563 -999 0.093045 0.470234 -1.313985
2009-03-02 08:31:53 51°20.975 2°49.545 -999 0.092942 0.469702 -1.313985
2009-03-02 08:31:58 51°20.989 2°49.528 -999 0.093045 0.470248 -1.313985
2009-03-02 08:32:03 51°21.003 2°49.51 -999 0.093045 0.470263 -1.279161
2009-03-02 08:32:08 51°21.016 2°49.493 -999 0.092942 0.469732 -1.279161
2009-03-02 08:32:13 51°21.03 2°49.475 -999 0.092942 0.469732 -1.279161
2009-03-02 08:32:18 51°21.043 2°49.457 -999 0.093045 0.470286 -1.279161
2009-03-02 08:32:23 51°21.057 2°49.44 -999 0.093045 0.470293 -1.279161
2009-03-02 08:32:28 51°21.071 2°49.423 -999 0.093045 0.470301 -1.279161
2009-03-02 08:32:33 51°21.084 2°49.405 -999 0.093045 0.470315 -1.279161
2009-03-02 08:32:38 51°21.098 2°49.387 -999 0.093045 0.470315 -1.279161
2009-03-02 08:32:43 51°21.111 2°49.37 -999 0.093045 0.470315 -1.279161
2009-03-02 08:32:48 51°21.125 2°49.352 -999 0.093045 0.47033 -1.313985
2009-03-02 08:32:53 51°21.138 2°49.334 -999 0.093045 0.470338 -1.313985
2009-03-02 08:32:58 51°21.152 2°49.315 -999 0.093045 0.470345 -1.313985
2009-03-02 08:33:03 51°21.165 2°49.297 -999 0.093045 0.470353 -1.279161
2009-03-02 08:33:08 51°21.179 2°49.279 -999 0.093045 0.47036 -1.313985
2009-03-02 08:33:13 51°21.192 2°49.26 -999 0.093045 0.47036 -1.313985
2009-03-02 08:33:18 51°21.206 2°49.242 -999 0.093045 0.470375 -1.313985
2009-03-02 08:33:23 51°21.219 2°49.224 -999 0.093045 0.470382 -1.279161
2009-03-02 08:33:28 51°21.233 2°49.206 -999 0.093045 0.470382 -1.279161
2009-03-02 08:33:33 51°21.246 2°49.188 -999 0.093045 0.47039 -1.279161
2009-03-02 08:33:38 51°21.26 2°49.17 -999 0.093045 0.47039 -1.279161
2009-03-02 08:33:43 51°21.274 2°49.152 -999 0.093045 0.47039 -1.279161
2009-03-02 08:33:48 51°21.288 2°49.135 -999 0.093045 0.470405 -1.279161
2009-03-02 08:33:53 51°21.302 2°49.118 -999 0.093045 0.470412 -1.279161
2009-03-02 08:33:58 51°21.316 2°49.101 -999 0.093045 0.470412 -1.279161
2009-03-02 08:34:03 51°21.33 2°49.085 -999 0.093045 0.47042 -1.313985
2009-03-02 08:34:08 51°21.344 2°49.068 -999 0.093045 0.47042 -1.313985
2009-03-02 08:34:13 51°21.358 2°49.051 -999 0.093045 0.470427 -1.279161
2009-03-02 08:34:18 51°21.372 2°49.034 -999 0.093045 0.470427 -1.279161
2009-03-02 08:34:23 51°21.387 2°49.017 -999 0.093045 0.470435 -1.279161
2009-03-02 08:34:28 51°21.401 2°49 -999 0.093045 0.470435 -1.313985
2009-03-02 08:34:33 51°21.415 2°48.984 -999 0.093045 0.470442 -1.279161
2009-03-02 08:34:38 51°21.429 2°48.967 -999 0.093045 0.470449 -1.279161
2009-03-02 08:34:43 51°21.444 2°48.95 -999 0.093045 0.470449 -1.279161
2009-03-02 08:34:48 51°21.458 2°48.934 -999 0.093045 0.470457 -1.313985
2009-03-02 08:34:53 51°21.473 2°48.917 -999 0.093045 0.470464 -1.313985
2009-03-02 08:34:58 51°21.487 2°48.9 -999 0.093045 0.470472 -1.279161
2009-03-02 08:35:03 51°21.501 2°48.883 -999 0.093045 0.470479 -1.313985
2009-03-02 08:35:08 51°21.515 2°48.866 -999 0.093045 0.470487 -1.313985
2009-03-02 08:35:13 51°21.53 2°48.85 -999 0.093045 0.470487 -1.313985
2009-03-02 08:35:18 51°21.545 2°48.834 -999 0.093045 0.470502 -1.279161
2009-03-02 08:35:23 51°21.56 2°48.819 -999 0.093045 0.470509 -1.279161
2009-03-02 08:35:28 51°21.574 2°48.803 -999 0.093045 0.470517 -1.279161
2009-03-02 08:35:33 51°21.589 2°48.787 -999 0.093045 0.470524 -1.313985
2009-03-02 08:35:38 51°21.603 2°48.771 -999 0.093045 0.470539 -1.313985
2009-03-02 08:35:43 51°21.619 2°48.756 -999 0.093045 0.470539 -1.313985
2009-03-02 08:35:48 51°21.633 2°48.741 -999 0.093045 0.470546 -1.279161
2009-03-02 08:35:53 51°21.648 2°48.725 -999 0.093045 0.470546 -1.313985
2009-03-02 08:35:58 51°21.663 2°48.71 -999 0.093045 0.470554 -1.279161
2009-03-02 08:36:03 51°21.678 2°48.695 -999 0.093045 0.470569 -1.279161
2009-03-02 08:36:08 51°21.693 2°48.68 -999 0.093045 0.470584 -1.279161
2009-03-02 08:36:13 51°21.708 2°48.665 -999 0.093045 0.470599 -1.313985
2009-03-02 08:36:18 51°21.723 2°48.65 -999 0.093045 0.470599 -1.313985
2009-03-02 08:36:23 51°21.738 2°48.636 -999 0.093045 0.470613 -1.313985
2009-03-02 08:36:28 51°21.754 2°48.621 -999 0.093045 0.470643 -1.279161
2009-03-02 08:36:33 51°21.769 2°48.607 -999 0.093045 0.470673 -1.313985
2009-03-02 08:36:38 51°21.784 2°48.592 -999 0.093045 0.470695 -1.279161
2009-03-02 08:36:43 51°21.799 2°48.578 -999 0.093045 0.470695 -1.279161
2009-03-02 08:36:48 51°21.814 2°48.564 -999 0.093045 0.470748 -1.279161
2009-03-02 08:36:53 51°21.829 2°48.549 -999 0.093045 0.470778 -1.279161
2009-03-02 08:36:58 51°21.845 2°48.535 -999 0.093045 0.4708 -1.313985
2009-03-02 08:37:03 51°21.86 2°48.521 -999 0.093045 0.47083 -1.279161
2009-03-02 08:37:08 51°21.875 2°48.506 -999 0.093045 0.470852 -1.279161
2009-03-02 08:37:13 51°21.89 2°48.493 -999 0.093045 0.470852 -1.279161
2009-03-02 08:37:18 51°21.906 2°48.479 -999 0.093045 0.470882 -1.313985
2009-03-02 08:37:23 51°21.921 2°48.466 -999 0.093045 0.470912 -1.313985
2009-03-02 08:37:28 51°21.937 2°48.453 -999 0.093045 0.470927 -1.279161
2009-03-02 08:37:33 51°21.952 2°48.44 -999 0.093045 0.470957 -1.279161
2009-03-02 08:37:38 51°21.968 2°48.428 -999 0.093045 0.470964 -1.279161
2009-03-02 08:37:43 51°21.983 2°48.416 -999 0.093045 0.470979 -1.313985
2009-03-02 08:37:48 51°21.999 2°48.405 -999 0.093045 0.470979 -1.313985
2009-03-02 08:37:53 51°22.015 2°48.396 -999 0.093045 0.470979 -1.313985
2009-03-02 08:37:58 51°22.032 2°48.386 -999 0.093045 0.471009 -1.313985
2009-03-02 08:38:03 51°22.048 2°48.378 -999 0.093045 0.471017 -1.348809
2009-03-02 08:38:08 51°22.064 2°48.371 -999 0.092942 0.470484 -1.279161
2009-03-02 08:38:13 51°22.081 2°48.363 -999 0.092942 0.470484 -1.279161
2009-03-02 08:38:18 51°22.097 2°48.359 -999 0.093045 0.471017 -1.279161
2009-03-02 08:38:23 51°22.114 2°48.354 -999 0.093045 0.471054 -1.279161
2009-03-02 08:38:28 51°22.13 2°48.349 -999 0.093045 0.471046 -1.279161
2009-03-02 08:38:33 51°22.147 2°48.346 -999 0.093045 0.471061 -1.313985
2009-03-02 08:38:38 51°22.164 2°48.342 -999 0.093045 0.471054 -1.279161
2009-03-02 08:38:43 51°22.18 2°48.34 -999 0.093045 0.471054 -1.279161
2009-03-02 08:38:48 51°22.196 2°48.336 -999 0.093045 0.471054 -1.313985
2009-03-02 08:38:53 51°22.213 2°48.334 -999 0.093045 0.471039 -1.279161
2009-03-02 08:38:58 51°22.229 2°48.332 -999 0.093045 0.471039 -1.313985
2009-03-02 08:39:03 51°22.246 2°48.33 -999 0.093045 0.471031 -1.279161
2009-03-02 08:39:08 51°22.262 2°48.329 -999 0.093045 0.471024 -1.313985
2009-03-02 08:39:13 51°22.279 2°48.328 -999 0.093045 0.471024 -1.313985
2009-03-02 08:39:18 51°22.295 2°48.327 -999 0.093045 0.471031 -1.279161
2009-03-02 08:39:23 51°22.312 2°48.328 -999 0.093045 0.471031 -1.313985
2009-03-02 08:39:28 51°22.329 2°48.328 -999 0.093045 0.471031 -1.279161
2009-03-02 08:39:33 51°22.345 2°48.329 -999 0.093045 0.471024 -1.279161
2009-03-02 08:39:38 51°22.361 2°48.33 -999 0.093045 0.471031 -1.279161
2009-03-02 08:39:43 51°22.378 2°48.332 -999 0.093045 0.471031 -1.279161
2009-03-02 08:39:48 51°22.394 2°48.334 -999 0.093045 0.471031 -1.279161
2009-03-02 08:39:53 51°22.41 2°48.337 -999 0.093045 0.471031 -1.279161
2009-03-02 08:39:58 51°22.427 2°48.34 -999 0.093045 0.471046 -1.279161
2009-03-02 08:40:03 51°22.443 2°48.343 -999 0.093045 0.471039 -1.313985
2009-03-02 08:40:08 51°22.459 2°48.347 -999 0.093045 0.471054 -1.279161
2009-03-02 08:40:13 51°22.475 2°48.351 -999 0.093045 0.471054 -1.279161
2009-03-02 08:40:18 51°22.491 2°48.354 -999 0.093045 0.471054 -1.313985
2009-03-02 08:40:23 51°22.508 2°48.358 -999 0.093045 0.471061 -1.313985
2009-03-02 08:40:28 51°22.524 2°48.362 -999 0.093045 0.471061 -1.279161
2009-03-02 08:40:33 51°22.54 2°48.366 -999 0.093045 0.471069 -1.279161
2009-03-02 08:40:38 51°22.556 2°48.37 -999 0.093045 0.471084 -1.313985
2009-03-02 08:40:43 51°22.572 2°48.374 -999 0.093045 0.471084 -1.313985
2009-03-02 08:40:48 51°22.588 2°48.378 -999 0.093045 0.471091 -1.279161
2009-03-02 08:40:53 51°22.605 2°48.382 -999 0.093045 0.471099 -1.279161
2009-03-02 08:40:58 51°22.621 2°48.387 -999 0.092942 0.470574 -1.279161
2009-03-02 08:41:03 51°22.637 2°48.391 -999 0.093045 0.471121 -1.279161
2009-03-02 08:41:08 51°22.653 2°48.395 -999 0.093045 0.471144 -1.279161
2009-03-02 08:41:13 51°22.67 2°48.398 -999 0.092942 0.470618 -1.279161
2009-03-02 08:41:18 51°22.686 2°48.402 -999 0.092942 0.470618 -1.279161
2009-03-02 08:41:23 51°22.702 2°48.405 -999 0.093045 0.471174 -1.313985
2009-03-02 08:41:28 51°22.719 2°48.408 -999 0.093045 0.471188 -1.313985
2009-03-02 08:41:33 51°22.735 2°48.411 -999 0.093045 0.471211 -1.279161
2009-03-02 08:41:38 51°22.752 2°48.414 -999 0.093045 0.471218 -1.313985
2009-03-02 08:41:43 51°22.769 2°48.417 -999 0.093045 0.471218 -1.313985
2009-03-02 08:41:48 51°22.785 2°48.42 -999 0.093045 0.471233 -1.279161
2009-03-02 08:41:53 51°22.802 2°48.422 -999 0.093045 0.471256 -1.279161
2009-03-02 08:41:58 51°22.818 2°48.425 -999 0.093045 0.471278 -1.279161
2009-03-02 08:42:03 51°22.835 2°48.427 -999 0.093045 0.471301 -1.313985
2009-03-02 08:42:08 51°22.851 2°48.43 -999 0.093045 0.471323 -1.279161
2009-03-02 08:42:13 51°22.867 2°48.43 -999 0.093045 0.471323 -1.279161
2009-03-02 08:42:18 51°22.884 2°48.433 -999 0.093045 0.471331 -1.279161
2009-03-02 08:42:23 51°22.901 2°48.433 -999 0.093045 0.471346 -1.279161
2009-03-02 08:42:28 51°22.917 2°48.434 -999 0.093045 0.471353 -1.313985
2009-03-02 08:42:33 51°22.934 2°48.434 -999 0.093045 0.471353 -1.279161
2009-03-02 08:42:38 51°22.95 2°48.434 -999 0.093045 0.471353 -1.279161
2009-03-02 08:42:43 51°22.967 2°48.435 -999 0.093045 0.471353 -1.279161
2009-03-02 08:42:48 51°22.984 2°48.435 -999 0.093045 0.471361 -1.279161
2009-03-02 08:42:53 51°23 2°48.435 -999 0.093045 0.471361 -1.313985
2009-03-02 08:42:58 51°23.017 2°48.435 -999 0.093045 0.471361 -1.313985
2009-03-02 08:43:03 51°23.034 2°48.435 -999 0.093045 0.471353 -1.279161
2009-03-02 08:43:08 51°23.05 2°48.435 -999 0.093045 0.471353 -1.279161
2009-03-02 08:43:13 51°23.067 2°48.435 -999 0.093045 0.471361 -1.279161
2009-03-02 08:43:18 51°23.083 2°48.435 -999 0.093045 0.471361 -1.279161
2009-03-02 08:43:23 51°23.1 2°48.436 -999 0.093045 0.471353 -1.279161
2009-03-02 08:43:28 51°23.116 2°48.435 -999 0.093045 0.471376 -1.313985
2009-03-02 08:43:33 51°23.133 2°48.435 -999 0.093045 0.471376 -1.313985
2009-03-02 08:43:38 51°23.149 2°48.434 -999 0.093045 0.47139 -1.313985
2009-03-02 08:43:43 51°23.166 2°48.434 -999 0.093045 0.47139 -1.313985
2009-03-02 08:43:48 51°23.182 2°48.433 -999 0.093045 0.471405 -1.313985
2009-03-02 08:43:53 51°23.199 2°48.432 -999 0.093045 0.47142 -1.279161
2009-03-02 08:43:58 51°23.215 2°48.431 -999 0.093045 0.471435 -1.279161
2009-03-02 08:44:03 51°23.232 2°48.431 -999 0.093045 0.47145 -1.313985
2009-03-02 08:44:08 51°23.248 2°48.431 -999 0.093045 0.471473 -1.279161
2009-03-02 08:44:13 51°23.265 2°48.43 -999 0.093045 0.471473 -1.279161
2009-03-02 08:44:18 51°23.281 2°48.43 -999 0.093045 0.471495 -1.279161
2009-03-02 08:44:23 51°23.298 2°48.43 -999 0.093045 0.471518 -1.279161
2009-03-02 08:44:28 51°23.315 2°48.429 -999 0.093045 0.471533 -1.279161
2009-03-02 08:44:33 51°23.331 2°48.429 -999 0.093045 0.471548 -1.279161
2009-03-02 08:44:38 51°23.347 2°48.427 -999 0.093045 0.471555 -1.279161
2009-03-02 08:44:43 51°23.364 2°48.428 -999 0.093045 0.471555 -1.279161
2009-03-02 08:44:48 51°23.38 2°48.426 -999 0.093045 0.471578 -1.279161
2009-03-02 08:44:53 51°23.397 2°48.428 -999 0.093045 0.471578 -1.279161
2009-03-02 08:44:58 51°23.413 2°48.428 -999 0.093045 0.471608 -1.313985
2009-03-02 08:45:03 51°23.43 2°48.43 -999 0.093045 0.471615 -1.313985
2009-03-02 08:45:08 51°23.446 2°48.432 -999 0.093045 0.471638 -1.279161
2009-03-02 08:45:13 51°23.463 2°48.434 -999 0.093045 0.471645 -1.313985
2009-03-02 08:45:18 51°23.479 2°48.436 -999 0.093045 0.471645 -1.313985
2009-03-02 08:45:23 51°23.496 2°48.438 -999 0.093045 0.471653 -1.313985
2009-03-02 08:45:28 51°23.512 2°48.44 -999 0.093045 0.47166 -1.279161
2009-03-02 08:45:33 51°23.529 2°48.443 -999 0.093045 0.471668 -1.279161
2009-03-02 08:45:38 51°23.545 2°48.445 -999 0.093045 0.471683 -1.279161
2009-03-02 08:45:43 51°23.562 2°48.447 -999 0.093045 0.471683 -1.279161
2009-03-02 08:45:48 51°23.578 2°48.45 -999 0.093045 0.47169 -1.313985
2009-03-02 08:45:53 51°23.594 2°48.451 -999 0.093045 0.471705 -1.279161
2009-03-02 08:45:58 51°23.611 2°48.453 -999 0.093045 0.471705 -1.279161
2009-03-02 08:46:03 51°23.627 2°48.455 -999 0.093045 0.47172 -1.279161
2009-03-02 08:46:08 51°23.644 2°48.456 -999 0.093045 0.471735 -1.313985
2009-03-02 08:46:13 51°23.661 2°48.459 -999 0.093045 0.471735 -1.313985
2009-03-02 08:46:18 51°23.677 2°48.46 -999 0.093045 0.47175 -1.279161
2009-03-02 08:46:23 51°23.693 2°48.462 -999 0.093045 0.471758 -1.279161
2009-03-02 08:46:28 51°23.71 2°48.464 -999 0.093045 0.471773 -1.313985
2009-03-02 08:46:33 51°23.726 2°48.466 -999 0.093045 0.47178 -1.313985
2009-03-02 08:46:38 51°23.743 2°48.467 -999 0.093045 0.471795 -1.279161
2009-03-02 08:46:43 51°23.76 2°48.469 -999 0.093045 0.471803 -1.279161
2009-03-02 08:46:48 51°23.776 2°48.469 -999 0.093045 0.471803 -1.279161
2009-03-02 08:46:53 51°23.793 2°48.472 -999 0.093045 0.47181 -1.279161
2009-03-02 08:46:58 51°23.809 2°48.473 -999 0.093045 0.471818 -1.313985
2009-03-02 08:47:03 51°23.825 2°48.475 -999 0.093045 0.471833 -1.279161
2009-03-02 08:47:08 51°23.841 2°48.476 -999 0.093045 0.471833 -1.279161
2009-03-02 08:47:13 51°23.857 2°48.476 -999 0.093045 0.471833 -1.279161
2009-03-02 08:47:18 51°23.873 2°48.477 -999 0.093045 0.47184 -1.313985
2009-03-02 08:47:23 51°23.889 2°48.479 -999 0.093045 0.471848 -1.279161
2009-03-02 08:47:28 51°23.906 2°48.48 -999 0.093045 0.471855 -1.279161
2009-03-02 08:47:33 51°23.922 2°48.482 -999 0.093045 0.471855 -1.279161
2009-03-02 08:47:38 51°23.938 2°48.484 -999 0.093045 0.471863 -1.279161
2009-03-02 08:47:43 51°23.954 2°48.485 -999 0.093045 0.471863 -1.279161
2009-03-02 08:47:48 51°23.971 2°48.486 -999 0.093045 0.471863 -1.313985
2009-03-02 08:47:53 51°23.987 2°48.488 -999 0.093045 0.47187 -1.313985
2009-03-02 08:47:58 51°24.003 2°48.489 -999 0.093045 0.471878 -1.279161
2009-03-02 08:48:03 51°24.02 2°48.491 -999 0.093045 0.471885 -1.279161
2009-03-02 08:48:08 51°24.036 2°48.491 -999 0.093045 0.471893 -1.313985
2009-03-02 08:48:13 51°24.052 2°48.493 -999 0.093045 0.471893 -1.313985
2009-03-02 08:48:18 51°24.069 2°48.494 -999 0.093045 0.471893 -1.313985
2009-03-02 08:48:23 51°24.085 2°48.495 -999 0.093045 0.471908 -1.313985
2009-03-02 08:48:28 51°24.101 2°48.495 -999 0.093045 0.4719 -1.313985
2009-03-02 08:48:33 51°24.117 2°48.496 -999 0.093045 0.471915 -1.279161
2009-03-02 08:48:38 51°24.134 2°48.496 -999 0.093045 0.471915 -1.279161
2009-03-02 08:48:43 51°24.15 2°48.495 -999 0.093045 0.47193 -1.279161
2009-03-02 08:48:48 51°24.167 2°48.495 -999 0.093045 0.47193 -1.279161
2009-03-02 08:48:53 51°24.183 2°48.495 -999 0.093045 0.471938 -1.279161
2009-03-02 08:48:58 51°24.2 2°48.494 -999 0.093045 0.471945 -1.313985
2009-03-02 08:49:03 51°24.216 2°48.494 -999 0.093045 0.471953 -1.279161
2009-03-02 08:49:08 51°24.233 2°48.493 -999 0.093045 0.47196 -1.279161
2009-03-02 08:49:13 51°24.25 2°48.492 -999 0.093045 0.47196 -1.279161
2009-03-02 08:49:18 51°24.266 2°48.491 -999 0.093045 0.471968 -1.313985
2009-03-02 08:49:23 51°24.283 2°48.491 -999 0.093045 0.471975 -1.279161
2009-03-02 08:49:28 51°24.299 2°48.49 -999 0.093045 0.471983 -1.279161
2009-03-02 08:49:33 51°24.316 2°48.488 -999 0.093045 0.471983 -1.313985
2009-03-02 08:49:38 51°24.332 2°48.487 -999 0.093148 0.472531 -1.313985
2009-03-02 08:49:43 51°24.349 2°48.485 -999 0.093148 0.472531 -1.313985
2009-03-02 08:49:48 51°24.364 2°48.483 -999 0.093045 0.47199 -1.279161
2009-03-02 08:49:53 51°24.38 2°48.482 -999 0.093045 0.472005 -1.279161
2009-03-02 08:49:58 51°24.395 2°48.48 -999 0.093148 0.472554 -1.313985
2009-03-02 08:50:03 51°24.41 2°48.48 -999 0.093045 0.47202 -1.279161
2009-03-02 08:50:08 51°24.424 2°48.479 -999 0.093045 0.47202 -1.279161
2009-03-02 08:50:13 51°24.439 2°48.478 -999 0.093148 0.472569 -1.313985
2009-03-02 08:50:18 51°24.453 2°48.478 -999 0.093148 0.472569 -1.313985
2009-03-02 08:50:23 51°24.468 2°48.478 -999 0.093045 0.472035 -1.279161
2009-03-02 08:50:28 51°24.482 2°48.478 -999 0.093045 0.472043 -1.279161
2009-03-02 08:50:33 51°24.496 2°48.478 -999 0.093148 0.472584 -1.279161
2009-03-02 08:50:38 51°24.51 2°48.478 -999 0.093148 0.472599 -1.279161
2009-03-02 08:50:43 51°24.524 2°48.478 -999 0.093148 0.472599 -1.279161
2009-03-02 08:50:48 51°24.538 2°48.478 -999 0.093148 0.472599 -1.279161
2009-03-02 08:50:53 51°24.552 2°48.479 -999 0.093148 0.472607 -1.313985
2009-03-02 08:50:58 51°24.565 2°48.479 -999 0.093148 0.472622 -1.279161
2009-03-02 08:51:03 51°24.579 2°48.479 -999 0.093148 0.472622 -1.279161
2009-03-02 08:51:08 51°24.593 2°48.48 -999 0.093148 0.472637 -1.279161
2009-03-02 08:51:13 51°24.607 2°48.48 -999 0.093148 0.472637 -1.279161
2009-03-02 08:51:18 51°24.62 2°48.481 -999 0.093148 0.472637 -1.313985
2009-03-02 08:51:23 51°24.633 2°48.481 -999 0.093148 0.472644 -1.279161
2009-03-02 08:51:28 51°24.645 2°48.481 -999 0.093148 0.472652 -1.313985
2009-03-02 08:51:33 51°24.657 2°48.481 -999 0.093148 0.472659 -1.313985
2009-03-02 08:51:38 51°24.669 2°48.482 -999 0.093148 0.472667 -1.279161
2009-03-02 08:51:43 51°24.68 2°48.481 -999 0.093148 0.472674 -1.279161
2009-03-02 08:51:48 51°24.69 2°48.481 -999 0.093148 0.472674 -1.279161
2009-03-02 08:51:53 51°24.701 2°48.481 -999 0.093148 0.472689 -1.279161
2009-03-02 08:51:58 51°24.711 2°48.481 -999 0.093148 0.472697 -1.279161
2009-03-02 08:52:03 51°24.72 2°48.481 -999 0.093148 0.472712 -1.313985
2009-03-02 08:52:08 51°24.73 2°48.48 -999 0.093148 0.472719 -1.279161
2009-03-02 08:52:13 51°24.739 2°48.48 -999 0.093148 0.472734 -1.279161
2009-03-02 08:52:18 51°24.749 2°48.479 -999 0.093148 0.472734 -1.279161
2009-03-02 08:52:23 51°24.757 2°48.478 -999 0.093148 0.47275 -1.279161
2009-03-02 08:52:28 51°24.767 2°48.478 -999 0.093148 0.472757 -1.313985
2009-03-02 08:52:33 51°24.775 2°48.477 -999 0.093148 0.472765 -1.279161
2009-03-02 08:52:38 51°24.784 2°48.476 -999 0.093148 0.472772 -1.279161
2009-03-02 08:52:43 51°24.793 2°48.475 -999 0.093148 0.472772 -1.279161
2009-03-02 08:52:48 51°24.801 2°48.475 -999 0.093148 0.472787 -1.313985
2009-03-02 08:52:53 51°24.81 2°48.474 -999 0.093148 0.472795 -1.313985
2009-03-02 08:52:58 51°24.818 2°48.473 -999 0.093148 0.472802 -1.279161
2009-03-02 08:53:03 51°24.827 2°48.473 -999 0.093148 0.472817 -1.279161
2009-03-02 08:53:08 51°24.835 2°48.473 -999 0.093148 0.472825 -1.279161
2009-03-02 08:53:13 51°24.843 2°48.472 -999 0.093148 0.472825 -1.279161
2009-03-02 08:53:18 51°24.852 2°48.472 -999 0.093148 0.472832 -1.313985
2009-03-02 08:53:23 51°24.86 2°48.471 -999 0.093148 0.47284 -1.279161
2009-03-02 08:53:28 51°24.868 2°48.471 -999 0.093148 0.472847 -1.279161
2009-03-02 08:53:33 51°24.876 2°48.47 -999 0.093148 0.472855 -1.279161
2009-03-02 08:53:38 51°24.884 2°48.47 -999 0.093148 0.472862 -1.313985
2009-03-02 08:53:43 51°24.892 2°48.469 -999 0.093148 0.472877 -1.313985
2009-03-02 08:53:48 51°24.9 2°48.469 -999 0.093148 0.472877 -1.313985
2009-03-02 08:53:53 51°24.908 2°48.47 -999 0.093148 0.472893 -1.313985
2009-03-02 08:53:58 51°24.915 2°48.47 -999 0.093148 0.4729 -1.279161
2009-03-02 08:54:03 51°24.922 2°48.471 -999 0.093148 0.472908 -1.279161
2009-03-02 08:54:08 51°24.929 2°48.472 -999 0.093148 0.472915 -1.279161
2009-03-02 08:54:13 51°24.936 2°48.473 -999 0.093148 0.472923 -1.313985
2009-03-02 08:54:18 51°24.942 2°48.474 -999 0.093148 0.472923 -1.313985
2009-03-02 08:54:23 51°24.948 2°48.476 -999 0.093148 0.47293 -1.279161
2009-03-02 08:54:28 51°24.954 2°48.478 -999 0.093148 0.472938 -1.279161
2009-03-02 08:54:33 51°24.96 2°48.48 -999 0.093148 0.472945 -1.313985
2009-03-02 08:54:38 51°24.965 2°48.483 -999 0.093148 0.472945 -1.279161
2009-03-02 08:54:43 51°24.97 2°48.486 -999 0.093148 0.472945 -1.279161
2009-03-02 08:54:48 51°24.974 2°48.488 -999 0.093148 0.472953 -1.279161
2009-03-02 08:54:53 51°24.979 2°48.491 -999 0.093148 0.47296 -1.279161
2009-03-02 08:54:58 51°24.982 2°48.493 -999 0.093148 0.472968 -1.279161
2009-03-02 08:55:03 51°24.986 2°48.496 -999 0.093148 0.472975 -1.313985
2009-03-02 08:55:08 51°24.99 2°48.498 -999 0.093148 0.472983 -1.279161
2009-03-02 08:55:13 51°24.992 2°48.501 -999 0.093148 0.472983 -1.279161
2009-03-02 08:55:18 51°24.995 2°48.503 -999 0.093148 0.472998 -1.279161
2009-03-02 08:55:23 51°24.997 2°48.505 -999 0.093148 0.473006 -1.279161
2009-03-02 08:55:28 51°24.999 2°48.506 -999 0.093148 0.473021 -1.279161
2009-03-02 08:55:33 51°25 2°48.507 -999 0.093148 0.473036 -1.279161
2009-03-02 08:55:38 51°25.001 2°48.508 -999 0.093148 0.473043 -1.279161
2009-03-02 08:55:43 51°25.002 2°48.509 -999 0.093148 0.473058 -1.279161
2009-03-02 08:55:48 51°25.003 2°48.51 -999 0.093148 0.473058 -1.279161
2009-03-02 08:55:53 51°25.004 2°48.512 -999 0.093148 0.473073 -1.279161
2009-03-02 08:55:58 51°25.005 2°48.513 -999 0.093148 0.473088 -1.313985
2009-03-02 08:56:03 51°25.005 2°48.514 -999 0.093148 0.473104 -1.279161
2009-03-02 08:56:08 51°25.006 2°48.515 -999 0.093148 0.473119 -1.313985
2009-03-02 08:56:13 51°25.006 2°48.516 -999 0.093148 0.473119 -1.313985
2009-03-02 08:56:18 51°25.006 2°48.518 -999 0.093148 0.473149 -1.313985
2009-03-02 08:56:23 51°25.007 2°48.519 -999 0.093148 0.473171 -1.279161
2009-03-02 08:56:28 51°25.007 2°48.52 -999 0.093148 0.473202 -1.313985
2009-03-02 08:56:33 51°25.007 2°48.521 -999 0.093148 0.473232 -1.313985
2009-03-02 08:56:38 51°25.008 2°48.522 -999 0.093148 0.473254 -1.279161
2009-03-02 08:56:43 51°25.008 2°48.523 -999 0.093148 0.473254 -1.279161
2009-03-02 08:56:48 51°25.008 2°48.524 -999 0.093148 0.473285 -1.279161
2009-03-02 08:56:53 51°25.008 2°48.526 -999 0.093148 0.473315 -1.279161
2009-03-02 08:56:58 51°25.008 2°48.527 -999 0.093148 0.473345 -1.313985
2009-03-02 08:57:03 51°25.008 2°48.527 -999 0.093148 0.473375 -1.279161
2009-03-02 08:57:08 51°25.009 2°48.528 -999 0.093148 0.473398 -1.313985
2009-03-02 08:57:13 51°25.009 2°48.529 -999 0.093148 0.473398 -1.313985
2009-03-02 08:57:18 51°25.009 2°48.53 -999 0.093148 0.47342 -1.313985
2009-03-02 08:57:23 51°25.009 2°48.53 -999 0.093148 0.473443 -1.279161
2009-03-02 08:57:28 51°25.009 2°48.531 -999 0.093148 0.473466 -1.279161
2009-03-02 08:57:33 51°25.009 2°48.532 -999 0.093148 0.473496 -1.279161
2009-03-02 08:57:38 51°25.009 2°48.532 -999 0.093148 0.473519 -1.279161
2009-03-02 08:57:43 51°25.01 2°48.533 -999 0.093148 0.473534 -1.313985
2009-03-02 08:57:48 51°25.01 2°48.533 -999 0.093148 0.473534 -1.313985
2009-03-02 08:57:53 51°25.01 2°48.534 -999 0.093148 0.473556 -1.313985
2009-03-02 08:57:58 51°25.01 2°48.534 -999 0.093148 0.473564 -1.279161
2009-03-02 08:58:03 51°25.01 2°48.534 -999 0.093148 0.473572 -1.279161
2009-03-02 08:58:08 51°25.01 2°48.535 -999 0.093148 0.473594 -1.279161
2009-03-02 08:58:13 51°25.01 2°48.536 -999 0.093148 0.473594 -1.279161
2009-03-02 08:58:18 51°25.01 2°48.536 -999 0.093148 0.473602 -1.279161
2009-03-02 08:58:23 51°25.01 2°48.536 -999 0.093148 0.473617 -1.279161
2009-03-02 08:58:28 51°25.01 2°48.536 -999 0.093148 0.473632 -1.279161
2009-03-02 08:58:33 51°25.01 2°48.536 -999 0.093148 0.47364 -1.279161
2009-03-02 08:58:38 51°25.01 2°48.536 -999 0.093148 0.473647 -1.313985
2009-03-02 08:58:43 51°25.01 2°48.536 -999 0.093148 0.473647 -1.313985
2009-03-02 08:58:48 51°25.01 2°48.535 -999 0.093148 0.473662 -1.279161
2009-03-02 08:58:53 51°25.01 2°48.535 -999 0.093148 0.473677 -1.313985
2009-03-02 08:58:58 51°25.011 2°48.535 -999 0.093148 0.473685 -1.279161
2009-03-02 08:59:03 51°25.011 2°48.535 -999 0.093148 0.473692 -1.313985
2009-03-02 08:59:08 51°25.011 2°48.535 -999 0.093148 0.473685 -1.279161
2009-03-02 08:59:13 51°25.01 2°48.534 -999 0.093148 0.473692 -1.279161
2009-03-02 08:59:18 51°25.01 2°48.534 -999 0.093148 0.473692 -1.279161
2009-03-02 08:59:23 51°25.01 2°48.534 -999 0.093148 0.473692 -1.313985
2009-03-02 08:59:28 51°25.01 2°48.533 -999 0.093148 0.473708 -1.279161
2009-03-02 08:59:33 51°25.01 2°48.533 -999 0.093148 0.473708 -1.279161
2009-03-02 08:59:38 51°25.01 2°48.532 -999 0.093148 0.473715 -1.313985
2009-03-02 08:59:43 51°25.01 2°48.531 -999 0.093148 0.473715 -1.313985
2009-03-02 08:59:48 51°25.009 2°48.531 -999 0.093148 0.47373 -1.279161
2009-03-02 08:59:53 51°25.009 2°48.53 -999 0.093148 0.473745 -1.279161
2009-03-02 08:59:58 51°25.009 2°48.529 -999 0.093148 0.473768 -1.313985
2009-03-02 09:00:03 51°25.009 2°48.529 -999 0.093148 0.473783 -1.313985
2009-03-02 09:00:08 51°25.009 2°48.528 -999 0.093148 0.473806 -1.279161
2009-03-02 09:00:13 51°25.008 2°48.527 -999 0.093148 0.473806 -1.279161
2009-03-02 09:00:18 51°25.008 2°48.526 -999 0.093148 0.473829 -1.279161
2009-03-02 09:00:23 51°25.008 2°48.526 -999 0.093148 0.473851 -1.279161
2009-03-02 09:00:28 51°25.008 2°48.525 -999 0.093148 0.473866 -1.313985
2009-03-02 09:00:33 51°25.008 2°48.524 -999 0.093045 0.473339 -1.279161
2009-03-02 09:00:38 51°25.007 2°48.523 -999 0.093148 0.473904 -1.279161
2009-03-02 09:00:43 51°25.007 2°48.522 -999 0.093148 0.473904 -1.279161
2009-03-02 09:00:48 51°25.007 2°48.521 -999 0.093148 0.473919 -1.279161
2009-03-02 09:00:53 51°25.007 2°48.52 -999 0.093045 0.473392 -1.279161
2009-03-02 09:00:58 51°25.006 2°48.52 -999 0.093045 0.473414 -1.313985
2009-03-02 09:01:03 51°25.006 2°48.519 -999 0.093148 0.47398 -1.279161
2009-03-02 09:01:08 51°25.005 2°48.518 -999 0.093045 0.473452 -1.313985
2009-03-02 09:01:13 51°25.005 2°48.518 -999 0.093045 0.473475 -1.279161
2009-03-02 09:01:18 51°25.005 2°48.517 -999 0.093045 0.473475 -1.279161
2009-03-02 09:01:23 51°25.004 2°48.516 -999 0.093045 0.473498 -1.279161
2009-03-02 09:01:28 51°25.004 2°48.515 -999 0.093045 0.473505 -1.313985
2009-03-02 09:01:33 51°25.003 2°48.514 -999 0.093045 0.47352 -1.313985
2009-03-02 09:01:38 51°25.003 2°48.513 -999 0.093045 0.473528 -1.279161
2009-03-02 09:01:43 51°25.002 2°48.512 -999 0.093045 0.473528 -1.279161
2009-03-02 09:01:48 51°25.002 2°48.511 -999 0.093045 0.473536 -1.313985